Wetterdaten: Donnerstag, 22.09.2016
Datum Zeit Temp. A. Feuchte A. Luftdruck Regen Wind Richtung Richtung Sonnenschein ET UV Solar Taupunkt Windchill Windben Empfang
22.09.2016 00:00 9,3 C 92 % 1019,7 hPa 0,0 l/m 5,9 km/h (2 Bft) S 176 0 min 0,000 mm 0,0 UV-I 0 W/m 8,1 C 9,3 C 9,7 km/h (2 Bft) 100,00 %
22.09.2016 00:02 9,3 C 92 % 1019,8 hPa 0,0 l/m 5,7 km/h (1 Bft) S 176 0 min 0,000 mm 0,0 UV-I 0 W/m 8,1 C 9,3 C 6,4 km/h (2 Bft) 100,00 %
22.09.2016 00:04 9,3 C 92 % 1019,7 hPa 0,0 l/m 5,6 km/h (1 Bft) S 175 0 min 0,000 mm 0,0 UV-I 0 W/m 8,1 C 9,3 C 6,4 km/h (2 Bft) 97,87 %
22.09.2016 00:06 9,3 C 92 % 1019,7 hPa 0,0 l/m 5,4 km/h (1 Bft) S-SW 199 0 min 0,000 mm 0,0 UV-I 0 W/m 8,1 C 9,3 C 6,4 km/h (2 Bft) 100,00 %
22.09.2016 00:08 9,3 C 92 % 1019,7 hPa 0,0 l/m 4,6 km/h (1 Bft) S-SW 198 0 min 0,000 mm 0,0 UV-I 0 W/m 8,1 C 9,3 C 6,4 km/h (2 Bft) 100,00 %
22.09.2016 00:10 9,3 C 91 % 1019,7 hPa 0,0 l/m 4,3 km/h (1 Bft) S 182 0 min 0,000 mm 0,0 UV-I 0 W/m 7,9 C 9,3 C 4,8 km/h (1 Bft) 100,00 %
22.09.2016 00:12 9,2 C 91 % 1019,7 hPa 0,0 l/m 4,6 km/h (1 Bft) S 182 0 min 0,000 mm 0,0 UV-I 0 W/m 7,8 C 9,2 C 6,4 km/h (2 Bft) 100,00 %
22.09.2016 00:14 9,1 C 92 % 1019,7 hPa 0,0 l/m 4,2 km/h (1 Bft) S 186 0 min 0,000 mm 0,0 UV-I 0 W/m 7,9 C 9,1 C 6,4 km/h (2 Bft) 100,00 %
22.09.2016 00:16 9,0 C 92 % 1019,7 hPa 0,0 l/m 4,0 km/h (1 Bft) S 176 0 min 0,000 mm 0,0 UV-I 0 W/m 7,8 C 9,0 C 8,0 km/h (2 Bft) 100,00 %
22.09.2016 00:18 8,9 C 92 % 1019,7 hPa 0,0 l/m 2,8 km/h (1 Bft) S 176 0 min 0,000 mm 0,0 UV-I 0 W/m 7,7 C 8,9 C 4,8 km/h (1 Bft) 100,00 %
22.09.2016 00:20 9,0 C 92 % 1019,7 hPa 0,0 l/m 3,1 km/h (1 Bft) S 177 0 min 0,000 mm 0,0 UV-I 0 W/m 7,8 C 9,0 C 4,8 km/h (1 Bft) 100,00 %
22.09.2016 00:22 8,9 C 93 % 1019,8 hPa 0,0 l/m 3,4 km/h (1 Bft) S-SW 198 0 min 0,000 mm 0,0 UV-I 0 W/m 7,8 C 8,9 C 4,8 km/h (1 Bft) 100,00 %
22.09.2016 00:24 8,9 C 93 % 1019,8 hPa 0,0 l/m 4,6 km/h (1 Bft) S-SW 211 0 min 0,000 mm 0,0 UV-I 0 W/m 7,8 C 8,9 C 6,4 km/h (2 Bft) 100,00 %
22.09.2016 00:26 8,9 C 93 % 1019,8 hPa 0,0 l/m 6,0 km/h (2 Bft) SW 217 0 min 0,000 mm 0,0 UV-I 0 W/m 7,8 C 8,9 C 8,0 km/h (2 Bft) 100,00 %
22.09.2016 00:28 9,0 C 93 % 1019,9 hPa 0,0 l/m 4,4 km/h (1 Bft) S-SW 201 0 min 0,000 mm 0,0 UV-I 0 W/m 7,9 C 9,0 C 8,0 km/h (2 Bft) 100,00 %
22.09.2016 00:30 9,1 C 93 % 1019,8 hPa 0,0 l/m 4,9 km/h (1 Bft) S-SW 194 0 min 0,000 mm 0,0 UV-I 0 W/m 8,0 C 9,1 C 8,0 km/h (2 Bft) 100,00 %
22.09.2016 00:32 9,2 C 93 % 1019,8 hPa 0,0 l/m 6,2 km/h (2 Bft) S 184 0 min 0,000 mm 0,0 UV-I 0 W/m 8,1 C 9,2 C 9,7 km/h (2 Bft) 97,44 %
22.09.2016 00:34 9,2 C 93 % 1019,8 hPa 0,0 l/m 3,1 km/h (1 Bft) S 178 0 min 0,000 mm 0,0 UV-I 0 W/m 8,1 C 9,2 C 6,4 km/h (2 Bft) 97,87 %
22.09.2016 00:36 9,2 C 92 % 1019,8 hPa 0,0 l/m 1,9 km/h (1 Bft) S 174 0 min 0,000 mm 0,0 UV-I 0 W/m 8,0 C 9,2 C 4,8 km/h (1 Bft) 98,11 %
22.09.2016 00:38 9,2 C 92 % 1019,9 hPa 0,0 l/m 2,4 km/h (1 Bft) S-SO 161 0 min 0,000 mm 0,0 UV-I 0 W/m 8,0 C 9,2 C 6,4 km/h (2 Bft) 97,56 %
22.09.2016 00:40 9,2 C 92 % 1019,9 hPa 0,0 l/m 3,4 km/h (1 Bft) S-SO 147 0 min 0,000 mm 0,0 UV-I 0 W/m 8,0 C 9,2 C 6,4 km/h (2 Bft) 98,00 %
22.09.2016 00:42 9,2 C 92 % 1019,9 hPa 0,0 l/m 3,0 km/h (1 Bft) SO 142 0 min 0,000 mm 0,0 UV-I 0 W/m 8,0 C 9,2 C 4,8 km/h (1 Bft) 98,00 %
22.09.2016 00:44 9,2 C 92 % 1019,9 hPa 0,0 l/m 2,5 km/h (1 Bft) S-SO 150 0 min 0,000 mm 0,0 UV-I 0 W/m 8,0 C 9,2 C 4,8 km/h (1 Bft) 94,00 %
22.09.2016 00:46 9,2 C 92 % 1019,9 hPa 0,0 l/m 1,8 km/h (1 Bft) S-SO 150 0 min 0,000 mm 0,0 UV-I 0 W/m 8,0 C 9,2 C 4,8 km/h (1 Bft) 97,87 %
22.09.2016 00:48 9,3 C 92 % 1019,9 hPa 0,0 l/m 1,2 km/h (1 Bft) S-SO 150 0 min 0,000 mm 0,0 UV-I 0 W/m 8,1 C 9,3 C 3,2 km/h (1 Bft) 97,37 %
22.09.2016 00:50 9,3 C 92 % 1019,9 hPa 0,0 l/m 2,0 km/h (1 Bft) S-SO 150 0 min 0,000 mm 0,0 UV-I 0 W/m 8,1 C 9,3 C 3,2 km/h (1 Bft) 97,56 %
22.09.2016 00:52 9,3 C 92 % 1019,9 hPa 0,0 l/m 3,5 km/h (1 Bft) S-SW 193 0 min 0,000 mm 0,0 UV-I 0 W/m 8,1 C 9,3 C 6,4 km/h (2 Bft) 98,04 %
22.09.2016 00:54 9,3 C 91 % 1019,9 hPa 0,0 l/m 5,2 km/h (1 Bft) S 179 0 min 0,000 mm 0,0 UV-I 0 W/m 7,9 C 9,3 C 8,0 km/h (2 Bft) 98,00 %
22.09.2016 00:56 9,3 C 91 % 1019,9 hPa 0,0 l/m 5,0 km/h (1 Bft) S 182 0 min 0,000 mm 0,0 UV-I 0 W/m 7,9 C 9,3 C 8,0 km/h (2 Bft) 98,11 %
22.09.2016 00:58 9,3 C 91 % 1019,8 hPa 0,0 l/m 3,9 km/h (1 Bft) S 186 0 min 0,000 mm 0,0 UV-I 0 W/m 7,9 C 9,3 C 4,8 km/h (1 Bft) 92,68 %
22.09.2016 01:00 9,2 C 91 % 1019,9 hPa 0,0 l/m 3,1 km/h (1 Bft) S 186 0 min 0,000 mm 0,0 UV-I 0 W/m 7,8 C 9,2 C 6,4 km/h (2 Bft) 97,56 %
22.09.2016 01:02 9,2 C 91 % 1019,9 hPa 0,0 l/m 2,3 km/h (1 Bft) S 188 0 min 0,000 mm 0,0 UV-I 0 W/m 7,8 C 9,2 C 4,8 km/h (1 Bft) 98,00 %
22.09.2016 01:04 9,1 C 92 % 1019,8 hPa 0,0 l/m 1,8 km/h (1 Bft) S 188 0 min 0,000 mm 0,0 UV-I 0 W/m 7,9 C 9,1 C 3,2 km/h (1 Bft) 94,00 %
22.09.2016 01:06 9,1 C 92 % 1019,9 hPa 0,0 l/m 1,2 km/h (1 Bft) S 188 0 min 0,000 mm 0,0 UV-I 0 W/m 7,9 C 9,1 C 3,2 km/h (1 Bft) 100,00 %
22.09.2016 01:08 9,1 C 92 % 1019,9 hPa 0,0 l/m 1,8 km/h (1 Bft) S 188 0 min 0,000 mm 0,0 UV-I 0 W/m 7,9 C 9,1 C 3,2 km/h (1 Bft) 100,00 %
22.09.2016 01:10 9,1 C 92 % 1019,9 hPa 0,0 l/m 2,1 km/h (1 Bft) S 189 0 min 0,000 mm 0,0 UV-I 0 W/m 7,9 C 9,1 C 4,8 km/h (1 Bft) 98,00 %
22.09.2016 01:12 9,1 C 92 % 1019,9 hPa 0,0 l/m 2,6 km/h (1 Bft) S 190 0 min 0,000 mm 0,0 UV-I 0 W/m 7,9 C 9,1 C 4,8 km/h (1 Bft) 97,87 %
22.09.2016 01:14 8,9 C 92 % 1019,9 hPa 0,0 l/m 2,5 km/h (1 Bft) S 190 0 min 0,000 mm 0,0 UV-I 0 W/m 7,7 C 8,9 C 3,2 km/h (1 Bft) 100,00 %
22.09.2016 01:16 8,9 C 92 % 1020,0 hPa 0,0 l/m 3,2 km/h (1 Bft) S-SW 192 0 min 0,000 mm 0,0 UV-I 0 W/m 7,7 C 8,9 C 4,8 km/h (1 Bft) 100,00 %
22.09.2016 01:18 8,8 C 92 % 1019,9 hPa 0,0 l/m 3,6 km/h (1 Bft) S-SW 205 0 min 0,000 mm 0,0 UV-I 0 W/m 7,6 C 8,8 C 4,8 km/h (1 Bft) 95,74 %
22.09.2016 01:20 8,7 C 92 % 1019,9 hPa 0,0 l/m 3,5 km/h (1 Bft) S-SW 211 0 min 0,000 mm 0,0 UV-I 0 W/m 7,5 C 8,7 C 4,8 km/h (1 Bft) 100,00 %
22.09.2016 01:22 8,7 C 93 % 1019,9 hPa 0,0 l/m 3,2 km/h (1 Bft) S-SW 211 0 min 0,000 mm 0,0 UV-I 0 W/m 7,6 C 8,7 C 4,8 km/h (1 Bft) 100,00 %
22.09.2016 01:24 8,6 C 93 % 1019,9 hPa 0,0 l/m 3,6 km/h (1 Bft) S-SW 211 0 min 0,000 mm 0,0 UV-I 0 W/m 7,5 C 8,6 C 4,8 km/h (1 Bft) 100,00 %
22.09.2016 01:26 8,5 C 93 % 1019,9 hPa 0,0 l/m 2,2 km/h (1 Bft) S-SW 211 0 min 0,000 mm 0,0 UV-I 0 W/m 7,4 C 8,5 C 4,8 km/h (1 Bft) 100,00 %
22.09.2016 01:28 8,4 C 93 % 1019,9 hPa 0,0 l/m 4,0 km/h (1 Bft) S-SW 194 0 min 0,000 mm 0,0 UV-I 0 W/m 7,3 C 8,4 C 4,8 km/h (1 Bft) 100,00 %
22.09.2016 01:30 8,4 C 93 % 1019,9 hPa 0,0 l/m 3,6 km/h (1 Bft) S 190 0 min 0,000 mm 0,0 UV-I 0 W/m 7,3 C 8,4 C 4,8 km/h (1 Bft) 97,87 %
22.09.2016 01:32 8,4 C 94 % 1019,9 hPa 0,0 l/m 2,2 km/h (1 Bft) S 190 0 min 0,000 mm 0,0 UV-I 0 W/m 7,5 C 8,4 C 4,8 km/h (1 Bft) 100,00 %
22.09.2016 01:34 8,4 C 94 % 1019,9 hPa 0,0 l/m 1,8 km/h (1 Bft) S 189 0 min 0,000 mm 0,0 UV-I 0 W/m 7,5 C 8,4 C 3,2 km/h (1 Bft) 100,00 %
22.09.2016 01:36 8,3 C 94 % 1019,9 hPa 0,0 l/m 2,8 km/h (1 Bft) S 189 0 min 0,000 mm 0,0 UV-I 0 W/m 7,4 C 8,3 C 4,8 km/h (1 Bft) 100,00 %
22.09.2016 01:38 8,4 C 94 % 1019,9 hPa 0,0 l/m 2,1 km/h (1 Bft) S 189 0 min 0,000 mm 0,0 UV-I 0 W/m 7,5 C 8,4 C 4,8 km/h (1 Bft) 100,00 %
22.09.2016 01:40 8,3 C 94 % 1020,0 hPa 0,0 l/m 1,1 km/h (1 Bft) S 189 0 min 0,000 mm 0,0 UV-I 0 W/m 7,4 C 8,3 C 3,2 km/h (1 Bft) 98,11 %
22.09.2016 01:42 8,4 C 94 % 1020,0 hPa 0,0 l/m 2,9 km/h (1 Bft) S 189 0 min 0,000 mm 0,0 UV-I 0 W/m 7,5 C 8,4 C 4,8 km/h (1 Bft) 100,00 %
22.09.2016 01:44 8,4 C 94 % 1020,0 hPa 0,0 l/m 2,9 km/h (1 Bft) S 189 0 min 0,000 mm 0,0 UV-I 0 W/m 7,5 C 8,4 C 4,8 km/h (1 Bft) 97,37 %
22.09.2016 01:46 8,4 C 94 % 1020,0 hPa 0,0 l/m 2,2 km/h (1 Bft) S 189 0 min 0,000 mm 0,0 UV-I 0 W/m 7,5 C 8,4 C 3,2 km/h (1 Bft) 100,00 %
22.09.2016 01:48 8,4 C 94 % 1020,0 hPa 0,0 l/m 2,7 km/h (1 Bft) S 190 0 min 0,000 mm 0,0 UV-I 0 W/m 7,5 C 8,4 C 4,8 km/h (1 Bft) 100,00 %
22.09.2016 01:50 8,4 C 94 % 1020,0 hPa 0,0 l/m 3,5 km/h (1 Bft) S 190 0 min 0,000 mm 0,0 UV-I 0 W/m 7,5 C 8,4 C 4,8 km/h (1 Bft) 98,08 %
22.09.2016 01:52 8,4 C 94 % 1020,0 hPa 0,0 l/m 3,5 km/h (1 Bft) S-SW 192 0 min 0,000 mm 0,0 UV-I 0 W/m 7,5 C 8,4 C 4,8 km/h (1 Bft) 100,00 %
22.09.2016 01:54 8,4 C 94 % 1020,0 hPa 0,0 l/m 4,6 km/h (1 Bft) S-SW 212 0 min 0,000 mm 0,0 UV-I 0 W/m 7,5 C 8,4 C 4,8 km/h (1 Bft) 100,00 %
22.09.2016 01:56 8,3 C 94 % 1020,0 hPa 0,0 l/m 3,8 km/h (1 Bft) S-SW 212 0 min 0,000 mm 0,0 UV-I 0 W/m 7,4 C 8,3 C 4,8 km/h (1 Bft) 100,00 %
22.09.2016 01:58 8,3 C 93 % 1020,0 hPa 0,0 l/m 4,4 km/h (1 Bft) S-SW 205 0 min 0,000 mm 0,0 UV-I 0 W/m 7,2 C 8,3 C 4,8 km/h (1 Bft) 100,00 %
22.09.2016 02:00 8,3 C 93 % 1020,0 hPa 0,0 l/m 4,1 km/h (1 Bft) S-SW 205 0 min 0,000 mm 0,0 UV-I 0 W/m 7,2 C 8,3 C 4,8 km/h (1 Bft) 100,00 %
22.09.2016 02:02 8,2 C 94 % 1020,0 hPa 0,0 l/m 2,9 km/h (1 Bft) S-SW 194 0 min 0,000 mm 0,0 UV-I 0 W/m 7,3 C 8,2 C 4,8 km/h (1 Bft) 100,00 %
22.09.2016 02:04 8,2 C 94 % 1020,1 hPa 0,0 l/m 1,9 km/h (1 Bft) S-SW 194 0 min 0,000 mm 0,0 UV-I 0 W/m 7,3 C 8,2 C 3,2 km/h (1 Bft) 96,15 %
22.09.2016 02:06 8,2 C 94 % 1020,1 hPa 0,0 l/m 2,4 km/h (1 Bft) S-SW 194 0 min 0,000 mm 0,0 UV-I 0 W/m 7,3 C 8,2 C 4,8 km/h (1 Bft) 98,39 %
22.09.2016 02:08 8,2 C 94 % 1020,1 hPa 0,0 l/m 2,9 km/h (1 Bft) S-SW 195 0 min 0,000 mm 0,0 UV-I 0 W/m 7,3 C 8,2 C 4,8 km/h (1 Bft) 98,11 %
22.09.2016 02:10 8,2 C 94 % 1020,1 hPa 0,0 l/m 2,4 km/h (1 Bft) S-SW 203 0 min 0,000 mm 0,0 UV-I 0 W/m 7,3 C 8,2 C 3,2 km/h (1 Bft) 100,00 %
22.09.2016 02:12 8,1 C 94 % 1020,2 hPa 0,0 l/m 3,0 km/h (1 Bft) W-SW 238 0 min 0,000 mm 0,0 UV-I 0 W/m 7,2 C 8,1 C 4,8 km/h (1 Bft) 100,00 %
22.09.2016 02:14 7,9 C 94 % 1020,1 hPa 0,0 l/m 2,3 km/h (1 Bft) W-SW 238 0 min 0,000 mm 0,0 UV-I 0 W/m 7,0 C 7,9 C 3,2 km/h (1 Bft) 97,87 %
22.09.2016 02:16 7,9 C 94 % 1020,1 hPa 0,0 l/m 0,9 km/h (0 Bft) W-SW 238 0 min 0,000 mm 0,0 UV-I 0 W/m 7,0 C 7,9 C 3,2 km/h (1 Bft) 97,87 %
22.09.2016 02:18 7,8 C 94 % 1020,1 hPa 0,0 l/m 1,0 km/h (0 Bft) W-SW 238 0 min 0,000 mm 0,0 UV-I 0 W/m 6,9 C 7,8 C 3,2 km/h (1 Bft) 100,00 %
22.09.2016 02:20 7,8 C 94 % 1020,1 hPa 0,0 l/m 1,0 km/h (0 Bft) W-SW 238 0 min 0,000 mm 0,0 UV-I 0 W/m 6,9 C 7,8 C 3,2 km/h (1 Bft) 100,00 %
22.09.2016 02:22 7,8 C 94 % 1020,1 hPa 0,0 l/m 1,6 km/h (1 Bft) W-SW 238 0 min 0,000 mm 0,0 UV-I 0 W/m 6,9 C 7,8 C 3,2 km/h (1 Bft) 100,00 %
22.09.2016 02:24 7,8 C 94 % 1020,1 hPa 0,0 l/m 2,5 km/h (1 Bft) W-SW 238 0 min 0,000 mm 0,0 UV-I 0 W/m 6,9 C 7,8 C 3,2 km/h (1 Bft) 100,00 %
22.09.2016 02:26 7,8 C 94 % 1020,1 hPa 0,0 l/m 2,7 km/h (1 Bft) W-SW 238 0 min 0,000 mm 0,0 UV-I 0 W/m 6,9 C 7,8 C 3,2 km/h (1 Bft) 100,00 %
22.09.2016 02:28 7,8 C 95 % 1020,1 hPa 0,0 l/m 3,2 km/h (1 Bft) SW 232 0 min 0,000 mm 0,0 UV-I 0 W/m 7,0 C 7,8 C 4,8 km/h (1 Bft) 100,00 %
22.09.2016 02:30 7,7 C 95 % 1020,1 hPa 0,0 l/m 3,7 km/h (1 Bft) SW 216 0 min 0,000 mm 0,0 UV-I 0 W/m 7,0 C 7,7 C 4,8 km/h (1 Bft) 100,00 %
22.09.2016 02:32 7,7 C 95 % 1020,1 hPa 0,0 l/m 3,6 km/h (1 Bft) SW 217 0 min 0,000 mm 0,0 UV-I 0 W/m 7,0 C 7,7 C 4,8 km/h (1 Bft) 97,87 %
22.09.2016 02:34 7,7 C 95 % 1020,0 hPa 0,0 l/m 3,9 km/h (1 Bft) SW 223 0 min 0,000 mm 0,0 UV-I 0 W/m 7,0 C 7,7 C 4,8 km/h (1 Bft) 97,87 %
22.09.2016 02:36 7,7 C 95 % 1020,0 hPa 0,0 l/m 3,8 km/h (1 Bft) SW 223 0 min 0,000 mm 0,0 UV-I 0 W/m 7,0 C 7,7 C 6,4 km/h (2 Bft) 97,37 %
22.09.2016 02:38 7,7 C 95 % 1020,0 hPa 0,0 l/m 4,5 km/h (1 Bft) SW 223 0 min 0,000 mm 0,0 UV-I 0 W/m 7,0 C 7,7 C 6,4 km/h (2 Bft) 98,11 %
22.09.2016 02:40 7,7 C 95 % 1020,1 hPa 0,0 l/m 2,9 km/h (1 Bft) SW 223 0 min 0,000 mm 0,0 UV-I 0 W/m 7,0 C 7,7 C 4,8 km/h (1 Bft) 97,73 %
22.09.2016 02:42 7,7 C 95 % 1020,2 hPa 0,0 l/m 3,1 km/h (1 Bft) SW 224 0 min 0,000 mm 0,0 UV-I 0 W/m 7,0 C 7,7 C 4,8 km/h (1 Bft) 97,87 %
22.09.2016 02:44 7,7 C 95 % 1020,1 hPa 0,0 l/m 4,2 km/h (1 Bft) SW 225 0 min 0,000 mm 0,0 UV-I 0 W/m 7,0 C 7,7 C 4,8 km/h (1 Bft) 96,23 %
22.09.2016 02:46 7,7 C 95 % 1020,1 hPa 0,0 l/m 4,0 km/h (1 Bft) W-SW 247 0 min 0,000 mm 0,0 UV-I 0 W/m 7,0 C 7,7 C 4,8 km/h (1 Bft) 100,00 %
22.09.2016 02:48 7,7 C 95 % 1020,1 hPa 0,0 l/m 3,9 km/h (1 Bft) W-SW 248 0 min 0,000 mm 0,0 UV-I 0 W/m 7,0 C 7,7 C 4,8 km/h (1 Bft) 96,00 %
22.09.2016 02:50 7,7 C 95 % 1020,1 hPa 0,0 l/m 3,4 km/h (1 Bft) W-SW 247 0 min 0,000 mm 0,0 UV-I 0 W/m 7,0 C 7,7 C 4,8 km/h (1 Bft) 95,74 %
22.09.2016 02:52 7,7 C 95 % 1020,1 hPa 0,0 l/m 2,5 km/h (1 Bft) W-SW 247 0 min 0,000 mm 0,0 UV-I 0 W/m 7,0 C 7,7 C 3,2 km/h (1 Bft) 96,00 %
22.09.2016 02:54 7,7 C 95 % 1020,1 hPa 0,0 l/m 2,7 km/h (1 Bft) W-SW 247 0 min 0,000 mm 0,0 UV-I 0 W/m 7,0 C 7,7 C 4,8 km/h (1 Bft) 94,74 %
22.09.2016 02:56 7,6 C 95 % 1020,1 hPa 0,0 l/m 2,2 km/h (1 Bft) W-SW 247 0 min 0,000 mm 0,0 UV-I 0 W/m 6,9 C 7,6 C 3,2 km/h (1 Bft) 98,00 %
22.09.2016 02:58 7,6 C 95 % 1020,1 hPa 0,0 l/m 3,2 km/h (1 Bft) W-SW 247 0 min 0,000 mm 0,0 UV-I 0 W/m 6,9 C 7,6 C 4,8 km/h (1 Bft) 95,74 %
22.09.2016 03:00 7,6 C 95 % 1020,1 hPa 0,0 l/m 3,4 km/h (1 Bft) W-SW 247 0 min 0,000 mm 0,0 UV-I 0 W/m 6,9 C 7,6 C 4,8 km/h (1 Bft) 96,00 %
22.09.2016 03:02 7,6 C 95 % 1020,1 hPa 0,0 l/m 3,0 km/h (1 Bft) W-SW 247 0 min 0,000 mm 0,0 UV-I 0 W/m 6,9 C 7,6 C 4,8 km/h (1 Bft) 96,00 %
22.09.2016 03:04 7,6 C 95 % 1020,1 hPa 0,0 l/m 2,6 km/h (1 Bft) W-SW 247 0 min 0,000 mm 0,0 UV-I 0 W/m 6,9 C 7,6 C 3,2 km/h (1 Bft) 97,87 %
22.09.2016 03:06 7,6 C 95 % 1020,1 hPa 0,0 l/m 3,0 km/h (1 Bft) W-SW 247 0 min 0,000 mm 0,0 UV-I 0 W/m 6,9 C 7,6 C 3,2 km/h (1 Bft) 100,00 %
22.09.2016 03:08 7,6 C 95 % 1020,1 hPa 0,0 l/m 2,7 km/h (1 Bft) W-SW 247 0 min 0,000 mm 0,0 UV-I 0 W/m 6,9 C 7,6 C 4,8 km/h (1 Bft) 98,44 %
22.09.2016 03:10 7,6 C 95 % 1020,2 hPa 0,0 l/m 2,8 km/h (1 Bft) W-SW 247 0 min 0,000 mm 0,0 UV-I 0 W/m 6,9 C 7,6 C 4,8 km/h (1 Bft) 100,00 %
22.09.2016 03:12 7,6 C 95 % 1020,2 hPa 0,0 l/m 2,7 km/h (1 Bft) W-SW 247 0 min 0,000 mm 0,0 UV-I 0 W/m 6,9 C 7,6 C 4,8 km/h (1 Bft) 100,00 %
22.09.2016 03:14 7,6 C 95 % 1020,2 hPa 0,0 l/m 2,6 km/h (1 Bft) W-SW 247 0 min 0,000 mm 0,0 UV-I 0 W/m 6,9 C 7,6 C 4,8 km/h (1 Bft) 100,00 %
22.09.2016 03:16 7,6 C 95 % 1020,2 hPa 0,0 l/m 2,6 km/h (1 Bft) W-SW 246 0 min 0,000 mm 0,0 UV-I 0 W/m 6,9 C 7,6 C 3,2 km/h (1 Bft) 100,00 %
22.09.2016 03:18 7,6 C 95 % 1020,3 hPa 0,0 l/m 3,3 km/h (1 Bft) W-SW 246 0 min 0,000 mm 0,0 UV-I 0 W/m 6,9 C 7,6 C 4,8 km/h (1 Bft) 100,00 %
22.09.2016 03:20 7,6 C 95 % 1020,2 hPa 0,0 l/m 3,2 km/h (1 Bft) W-SW 246 0 min 0,000 mm 0,0 UV-I 0 W/m 6,9 C 7,6 C 4,8 km/h (1 Bft) 100,00 %
22.09.2016 03:22 7,6 C 95 % 1020,2 hPa 0,0 l/m 3,5 km/h (1 Bft) W-SW 240 0 min 0,000 mm 0,0 UV-I 0 W/m 6,9 C 7,6 C 4,8 km/h (1 Bft) 100,00 %
22.09.2016 03:24 7,5 C 95 % 1020,1 hPa 0,0 l/m 3,7 km/h (1 Bft) SW 229 0 min 0,000 mm 0,0 UV-I 0 W/m 6,8 C 7,5 C 4,8 km/h (1 Bft) 100,00 %
22.09.2016 03:26 7,4 C 95 % 1020,1 hPa 0,0 l/m 4,2 km/h (1 Bft) S-SW 196 0 min 0,000 mm 0,0 UV-I 0 W/m 6,7 C 7,4 C 6,4 km/h (2 Bft) 98,11 %
22.09.2016 03:28 7,4 C 95 % 1020,1 hPa 0,0 l/m 4,0 km/h (1 Bft) S-SW 196 0 min 0,000 mm 0,0 UV-I 0 W/m 6,7 C 7,4 C 6,4 km/h (2 Bft) 100,00 %
22.09.2016 03:30 7,4 C 95 % 1020,1 hPa 0,0 l/m 4,7 km/h (1 Bft) S-SW 196 0 min 0,000 mm 0,0 UV-I 0 W/m 6,7 C 7,4 C 6,4 km/h (2 Bft) 100,00 %
22.09.2016 03:32 7,4 C 95 % 1020,1 hPa 0,0 l/m 3,5 km/h (1 Bft) S-SW 196 0 min 0,000 mm 0,0 UV-I 0 W/m 6,7 C 7,4 C 6,4 km/h (2 Bft) 100,00 %
22.09.2016 03:34 7,4 C 96 % 1020,1 hPa 0,0 l/m 4,1 km/h (1 Bft) S-SW 196 0 min 0,000 mm 0,0 UV-I 0 W/m 6,8 C 7,4 C 6,4 km/h (2 Bft) 100,00 %
22.09.2016 03:36 7,5 C 96 % 1020,1 hPa 0,0 l/m 3,6 km/h (1 Bft) S-SW 199 0 min 0,000 mm 0,0 UV-I 0 W/m 6,9 C 7,5 C 6,4 km/h (2 Bft) 100,00 %
22.09.2016 03:38 7,6 C 96 % 1020,1 hPa 0,0 l/m 4,3 km/h (1 Bft) S-SW 197 0 min 0,000 mm 0,0 UV-I 0 W/m 7,0 C 7,6 C 6,4 km/h (2 Bft) 100,00 %
22.09.2016 03:40 7,6 C 96 % 1020,1 hPa 0,0 l/m 5,2 km/h (1 Bft) S-SW 200 0 min 0,000 mm 0,0 UV-I 0 W/m 7,0 C 7,6 C 6,4 km/h (2 Bft) 100,00 %
22.09.2016 03:42 7,7 C 96 % 1020,1 hPa 0,0 l/m 4,7 km/h (1 Bft) S-SW 192 0 min 0,000 mm 0,0 UV-I 0 W/m 7,1 C 7,7 C 6,4 km/h (2 Bft) 97,87 %
22.09.2016 03:44 7,7 C 96 % 1020,1 hPa 0,0 l/m 5,5 km/h (1 Bft) S 186 0 min 0,000 mm 0,0 UV-I 0 W/m 7,1 C 7,7 C 8,0 km/h (2 Bft) 100,00 %
22.09.2016 03:46 7,8 C 96 % 1020,2 hPa 0,0 l/m 3,2 km/h (1 Bft) S 186 0 min 0,000 mm 0,0 UV-I 0 W/m 7,2 C 7,8 C 4,8 km/h (1 Bft) 100,00 %
22.09.2016 03:48 7,8 C 96 % 1020,2 hPa 0,0 l/m 3,8 km/h (1 Bft) S 186 0 min 0,000 mm 0,0 UV-I 0 W/m 7,2 C 7,8 C 6,4 km/h (2 Bft) 100,00 %
22.09.2016 03:50 7,8 C 96 % 1020,2 hPa 0,0 l/m 3,4 km/h (1 Bft) S-SW 204 0 min 0,000 mm 0,0 UV-I 0 W/m 7,2 C 7,8 C 6,4 km/h (2 Bft) 97,37 %
22.09.2016 03:52 7,8 C 96 % 1020,2 hPa 0,0 l/m 2,9 km/h (1 Bft) S-SW 204 0 min 0,000 mm 0,0 UV-I 0 W/m 7,2 C 7,8 C 4,8 km/h (1 Bft) 98,04 %
22.09.2016 03:54 7,8 C 96 % 1020,3 hPa 0,0 l/m 4,0 km/h (1 Bft) S-SW 205 0 min 0,000 mm 0,0 UV-I 0 W/m 7,2 C 7,8 C 4,8 km/h (1 Bft) 100,00 %
22.09.2016 03:56 7,8 C 96 % 1020,3 hPa 0,0 l/m 3,3 km/h (1 Bft) S-SW 205 0 min 0,000 mm 0,0 UV-I 0 W/m 7,2 C 7,8 C 6,4 km/h (2 Bft) 100,00 %
22.09.2016 03:58 7,8 C 96 % 1020,3 hPa 0,0 l/m 4,2 km/h (1 Bft) S-SW 198 0 min 0,000 mm 0,0 UV-I 0 W/m 7,2 C 7,8 C 6,4 km/h (2 Bft) 100,00 %
22.09.2016 04:00 7,8 C 96 % 1020,3 hPa 0,0 l/m 4,8 km/h (1 Bft) S-SW 197 0 min 0,000 mm 0,0 UV-I 0 W/m 7,2 C 7,8 C 6,4 km/h (2 Bft) 100,00 %
22.09.2016 04:02 7,8 C 96 % 1020,3 hPa 0,0 l/m 7,8 km/h (2 Bft) S-SW 207 0 min 0,000 mm 0,0 UV-I 0 W/m 7,2 C 6,7 C 8,0 km/h (2 Bft) 100,00 %
22.09.2016 04:04 7,8 C 96 % 1020,3 hPa 0,0 l/m 5,6 km/h (1 Bft) S-SW 194 0 min 0,000 mm 0,0 UV-I 0 W/m 7,2 C 7,8 C 8,0 km/h (2 Bft) 97,37 %
22.09.2016 04:06 7,8 C 96 % 1020,3 hPa 0,0 l/m 6,3 km/h (2 Bft) S 188 0 min 0,000 mm 0,0 UV-I 0 W/m 7,2 C 7,8 C 9,7 km/h (2 Bft) 100,00 %
22.09.2016 04:08 7,8 C 95 % 1020,3 hPa 0,0 l/m 6,7 km/h (2 Bft) S-SW 200 0 min 0,000 mm 0,0 UV-I 0 W/m 7,0 C 7,6 C 9,7 km/h (2 Bft) 100,00 %
22.09.2016 04:10 7,8 C 95 % 1020,3 hPa 0,0 l/m 6,1 km/h (2 Bft) S-SW 202 0 min 0,000 mm 0,0 UV-I 0 W/m 7,0 C 7,8 C 8,0 km/h (2 Bft) 100,00 %
22.09.2016 04:12 7,8 C 95 % 1020,2 hPa 0,0 l/m 6,5 km/h (2 Bft) S-SW 199 0 min 0,000 mm 0,0 UV-I 0 W/m 7,0 C 7,7 C 9,7 km/h (2 Bft) 100,00 %
22.09.2016 04:14 7,7 C 95 % 1020,3 hPa 0,0 l/m 4,3 km/h (1 Bft) S 191 0 min 0,000 mm 0,0 UV-I 0 W/m 7,0 C 7,7 C 4,8 km/h (1 Bft) 98,00 %
22.09.2016 04:16 7,7 C 95 % 1020,3 hPa 0,0 l/m 4,0 km/h (1 Bft) S-SW 193 0 min 0,000 mm 0,0 UV-I 0 W/m 7,0 C 7,7 C 6,4 km/h (2 Bft) 100,00 %
22.09.2016 04:18 7,7 C 95 % 1020,3 hPa 0,0 l/m 4,3 km/h (1 Bft) S-SW 192 0 min 0,000 mm 0,0 UV-I 0 W/m 7,0 C 7,7 C 6,4 km/h (2 Bft) 100,00 %
22.09.2016 04:20 7,7 C 95 % 1020,3 hPa 0,0 l/m 5,0 km/h (1 Bft) S 184 0 min 0,000 mm 0,0 UV-I 0 W/m 7,0 C 7,7 C 8,0 km/h (2 Bft) 100,00 %
22.09.2016 04:22 7,6 C 95 % 1020,3 hPa 0,0 l/m 5,5 km/h (1 Bft) S 184 0 min 0,000 mm 0,0 UV-I 0 W/m 6,9 C 7,6 C 8,0 km/h (2 Bft) 96,23 %
22.09.2016 04:24 7,6 C 95 % 1020,3 hPa 0,0 l/m 5,3 km/h (1 Bft) S 186 0 min 0,000 mm 0,0 UV-I 0 W/m 6,9 C 7,6 C 6,4 km/h (2 Bft) 97,73 %
22.09.2016 04:26 7,6 C 95 % 1020,3 hPa 0,0 l/m 5,4 km/h (1 Bft) S-SW 200 0 min 0,000 mm 0,0 UV-I 0 W/m 6,9 C 7,6 C 6,4 km/h (2 Bft) 100,00 %
22.09.2016 04:28 7,6 C 95 % 1020,3 hPa 0,0 l/m 5,7 km/h (1 Bft) S 182 0 min 0,000 mm 0,0 UV-I 0 W/m 6,9 C 7,6 C 8,0 km/h (2 Bft) 100,00 %
22.09.2016 04:30 7,6 C 95 % 1020,2 hPa 0,0 l/m 5,4 km/h (1 Bft) S 171 0 min 0,000 mm 0,0 UV-I 0 W/m 6,9 C 7,6 C 8,0 km/h (2 Bft) 100,00 %
22.09.2016 04:32 7,6 C 95 % 1020,2 hPa 0,0 l/m 4,6 km/h (1 Bft) S-SW 208 0 min 0,000 mm 0,0 UV-I 0 W/m 6,9 C 7,6 C 6,4 km/h (2 Bft) 97,87 %
22.09.2016 04:34 7,5 C 96 % 1020,2 hPa 0,0 l/m 4,6 km/h (1 Bft) S-SW 203 0 min 0,000 mm 0,0 UV-I 0 W/m 6,9 C 7,5 C 6,4 km/h (2 Bft) 97,37 %
22.09.2016 04:36 7,5 C 96 % 1020,2 hPa 0,0 l/m 3,4 km/h (1 Bft) S-SW 196 0 min 0,000 mm 0,0 UV-I 0 W/m 6,9 C 7,5 C 6,4 km/h (2 Bft) 100,00 %
22.09.2016 04:38 7,4 C 96 % 1020,3 hPa 0,0 l/m 2,9 km/h (1 Bft) S-SW 196 0 min 0,000 mm 0,0 UV-I 0 W/m 6,8 C 7,4 C 4,8 km/h (1 Bft) 97,56 %
22.09.2016 04:40 7,4 C 96 % 1020,2 hPa 0,0 l/m 2,2 km/h (1 Bft) S 186 0 min 0,000 mm 0,0 UV-I 0 W/m 6,8 C 7,4 C 4,8 km/h (1 Bft) 95,74 %
22.09.2016 04:42 7,4 C 96 % 1020,3 hPa 0,0 l/m 3,6 km/h (1 Bft) S 186 0 min 0,000 mm 0,0 UV-I 0 W/m 6,8 C 7,4 C 6,4 km/h (2 Bft) 98,00 %
22.09.2016 04:44 7,4 C 96 % 1020,3 hPa 0,0 l/m 5,0 km/h (1 Bft) S-SW 194 0 min 0,000 mm 0,0 UV-I 0 W/m 6,8 C 7,4 C 8,0 km/h (2 Bft) 98,00 %
22.09.2016 04:46 7,4 C 96 % 1020,3 hPa 0,0 l/m 4,2 km/h (1 Bft) S 174 0 min 0,000 mm 0,0 UV-I 0 W/m 6,8 C 7,4 C 6,4 km/h (2 Bft) 95,74 %
22.09.2016 04:48 7,4 C 96 % 1020,3 hPa 0,0 l/m 4,2 km/h (1 Bft) S 169 0 min 0,000 mm 0,0 UV-I 0 W/m 6,8 C 7,4 C 6,4 km/h (2 Bft) 97,37 %
22.09.2016 04:50 7,4 C 96 % 1020,3 hPa 0,0 l/m 2,8 km/h (1 Bft) S 185 0 min 0,000 mm 0,0 UV-I 0 W/m 6,8 C 7,4 C 6,4 km/h (2 Bft) 98,11 %
22.09.2016 04:52 7,4 C 96 % 1020,3 hPa 0,0 l/m 1,6 km/h (1 Bft) S 185 0 min 0,000 mm 0,0 UV-I 0 W/m 6,8 C 7,4 C 3,2 km/h (1 Bft) 94,74 %
22.09.2016 04:54 7,4 C 96 % 1020,3 hPa 0,0 l/m 0,3 km/h (0 Bft) S 185 0 min 0,000 mm 0,0 UV-I 0 W/m 6,8 C 7,4 C 1,6 km/h (1 Bft) 96,23 %
22.09.2016 04:56 7,4 C 95 % 1020,4 hPa 0,0 l/m 1,3 km/h (1 Bft) S 185 0 min 0,000 mm 0,0 UV-I 0 W/m 6,7 C 7,4 C 3,2 km/h (1 Bft) 97,87 %
22.09.2016 04:58 7,3 C 95 % 1020,4 hPa 0,0 l/m 0,1 km/h (0 Bft) S 185 0 min 0,000 mm 0,0 UV-I 0 W/m 6,6 C 7,3 C 1,6 km/h (1 Bft) 97,87 %
22.09.2016 05:00 7,3 C 95 % 1020,3 hPa 0,0 l/m 2,5 km/h (1 Bft) S 185 0 min 0,000 mm 0,0 UV-I 0 W/m 6,6 C 7,3 C 4,8 km/h (1 Bft) 97,87 %
22.09.2016 05:02 7,3 C 95 % 1020,3 hPa 0,0 l/m 2,3 km/h (1 Bft) S 185 0 min 0,000 mm 0,0 UV-I 0 W/m 6,6 C 7,3 C 3,2 km/h (1 Bft) 97,44 %
22.09.2016 05:04 7,3 C 95 % 1020,2 hPa 0,0 l/m 3,5 km/h (1 Bft) S 178 0 min 0,000 mm 0,0 UV-I 0 W/m 6,6 C 7,3 C 4,8 km/h (1 Bft) 96,23 %
22.09.2016 05:06 7,3 C 95 % 1020,3 hPa 0,0 l/m 3,5 km/h (1 Bft) S 177 0 min 0,000 mm 0,0 UV-I 0 W/m 6,6 C 7,3 C 4,8 km/h (1 Bft) 97,56 %
22.09.2016 05:08 7,3 C 95 % 1020,3 hPa 0,0 l/m 3,3 km/h (1 Bft) S 178 0 min 0,000 mm 0,0 UV-I 0 W/m 6,6 C 7,3 C 4,8 km/h (1 Bft) 96,00 %
22.09.2016 05:10 7,2 C 95 % 1020,3 hPa 0,0 l/m 3,7 km/h (1 Bft) S 184 0 min 0,000 mm 0,0 UV-I 0 W/m 6,5 C 7,2 C 6,4 km/h (2 Bft) 97,87 %
22.09.2016 05:12 7,2 C 96 % 1020,3 hPa 0,0 l/m 4,2 km/h (1 Bft) S 190 0 min 0,000 mm 0,0 UV-I 0 W/m 6,6 C 7,2 C 6,4 km/h (2 Bft) 100,00 %
22.09.2016 05:14 7,2 C 96 % 1020,3 hPa 0,0 l/m 4,8 km/h (1 Bft) S 181 0 min 0,000 mm 0,0 UV-I 0 W/m 6,6 C 7,2 C 8,0 km/h (2 Bft) 100,00 %
22.09.2016 05:16 7,2 C 96 % 1020,3 hPa 0,0 l/m 6,5 km/h (2 Bft) S 184 0 min 0,000 mm 0,0 UV-I 0 W/m 6,6 C 7,1 C 8,0 km/h (2 Bft) 100,00 %
22.09.2016 05:18 7,3 C 96 % 1020,3 hPa 0,0 l/m 4,8 km/h (1 Bft) S-SW 194 0 min 0,000 mm 0,0 UV-I 0 W/m 6,7 C 7,3 C 6,4 km/h (2 Bft) 100,00 %
22.09.2016 05:20 7,3 C 96 % 1020,3 hPa 0,0 l/m 4,3 km/h (1 Bft) S 190 0 min 0,000 mm 0,0 UV-I 0 W/m 6,7 C 7,3 C 6,4 km/h (2 Bft) 100,00 %
22.09.2016 05:22 7,3 C 96 % 1020,3 hPa 0,0 l/m 5,3 km/h (1 Bft) S 185 0 min 0,000 mm 0,0 UV-I 0 W/m 6,7 C 7,3 C 8,0 km/h (2 Bft) 100,00 %
22.09.2016 05:24 7,3 C 96 % 1020,3 hPa 0,0 l/m 5,8 km/h (2 Bft) S-SW 205 0 min 0,000 mm 0,0 UV-I 0 W/m 6,7 C 7,3 C 8,0 km/h (2 Bft) 97,87 %
22.09.2016 05:26 7,2 C 96 % 1020,3 hPa 0,0 l/m 5,8 km/h (2 Bft) S 190 0 min 0,000 mm 0,0 UV-I 0 W/m 6,6 C 7,2 C 6,4 km/h (2 Bft) 100,00 %
22.09.2016 05:28 7,2 C 96 % 1020,3 hPa 0,0 l/m 5,6 km/h (1 Bft) S 191 0 min 0,000 mm 0,0 UV-I 0 W/m 6,6 C 7,2 C 6,4 km/h (2 Bft) 100,00 %
22.09.2016 05:30 7,2 C 96 % 1020,4 hPa 0,0 l/m 5,1 km/h (1 Bft) S-SW 198 0 min 0,000 mm 0,0 UV-I 0 W/m 6,6 C 7,2 C 8,0 km/h (2 Bft) 100,00 %
22.09.2016 05:32 7,2 C 96 % 1020,4 hPa 0,0 l/m 5,7 km/h (1 Bft) S-SO 167 0 min 0,000 mm 0,0 UV-I 0 W/m 6,6 C 7,2 C 8,0 km/h (2 Bft) 100,00 %
22.09.2016 05:34 7,3 C 96 % 1020,4 hPa 0,0 l/m 5,0 km/h (1 Bft) S 178 0 min 0,000 mm 0,0 UV-I 0 W/m 6,7 C 7,3 C 6,4 km/h (2 Bft) 100,00 %
22.09.2016 05:36 7,3 C 96 % 1020,3 hPa 0,0 l/m 5,3 km/h (1 Bft) S 182 0 min 0,000 mm 0,0 UV-I 0 W/m 6,7 C 7,3 C 8,0 km/h (2 Bft) 98,00 %
22.09.2016 05:38 7,3 C 96 % 1020,3 hPa 0,0 l/m 4,1 km/h (1 Bft) S 182 0 min 0,000 mm 0,0 UV-I 0 W/m 6,7 C 7,3 C 4,8 km/h (1 Bft) 98,00 %
22.09.2016 05:40 7,3 C 95 % 1020,3 hPa 0,0 l/m 3,6 km/h (1 Bft) S 182 0 min 0,000 mm 0,0 UV-I 0 W/m 6,6 C 7,3 C 4,8 km/h (1 Bft) 100,00 %
22.09.2016 05:42 7,3 C 95 % 1020,4 hPa 0,0 l/m 4,1 km/h (1 Bft) S 182 0 min 0,000 mm 0,0 UV-I 0 W/m 6,6 C 7,3 C 4,8 km/h (1 Bft) 95,74 %
22.09.2016 05:44 7,3 C 95 % 1020,4 hPa 0,0 l/m 3,6 km/h (1 Bft) S 179 0 min 0,000 mm 0,0 UV-I 0 W/m 6,6 C 7,3 C 4,8 km/h (1 Bft) 100,00 %
22.09.2016 05:46 7,3 C 95 % 1020,4 hPa 0,0 l/m 3,8 km/h (1 Bft) S 184 0 min 0,000 mm 0,0 UV-I 0 W/m 6,6 C 7,3 C 4,8 km/h (1 Bft) 98,00 %
22.09.2016 05:48 7,3 C 95 % 1020,4 hPa 0,0 l/m 3,3 km/h (1 Bft) S 184 0 min 0,000 mm 0,0 UV-I 0 W/m 6,6 C 7,3 C 4,8 km/h (1 Bft) 100,00 %
22.09.2016 05:50 7,3 C 95 % 1020,3 hPa 0,0 l/m 4,0 km/h (1 Bft) S 184 0 min 0,000 mm 0,0 UV-I 0 W/m 6,6 C 7,3 C 6,4 km/h (2 Bft) 100,00 %
22.09.2016 05:52 7,2 C 95 % 1020,3 hPa 0,0 l/m 2,9 km/h (1 Bft) S 184 0 min 0,000 mm 0,0 UV-I 0 W/m 6,5 C 7,2 C 4,8 km/h (1 Bft) 100,00 %
22.09.2016 05:54 7,2 C 95 % 1020,4 hPa 0,0 l/m 2,3 km/h (1 Bft) S 184 0 min 0,000 mm 0,0 UV-I 0 W/m 6,5 C 7,2 C 4,8 km/h (1 Bft) 100,00 %
22.09.2016 05:56 7,2 C 95 % 1020,4 hPa 0,0 l/m 3,7 km/h (1 Bft) S 184 0 min 0,000 mm 0,0 UV-I 0 W/m 6,5 C 7,2 C 4,8 km/h (1 Bft) 100,00 %
22.09.2016 05:58 7,2 C 95 % 1020,4 hPa 0,0 l/m 3,8 km/h (1 Bft) S 184 0 min 0,000 mm 0,0 UV-I 0 W/m 6,5 C 7,2 C 4,8 km/h (1 Bft) 100,00 %
22.09.2016 06:00 7,2 C 95 % 1020,5 hPa 0,0 l/m 2,9 km/h (1 Bft) S 184 0 min 0,000 mm 0,0 UV-I 0 W/m 6,5 C 7,2 C 4,8 km/h (1 Bft) 100,00 %
22.09.2016 06:02 7,2 C 95 % 1020,5 hPa 0,0 l/m 2,1 km/h (1 Bft) S 184 0 min 0,000 mm 0,0 UV-I 0 W/m 6,5 C 7,2 C 3,2 km/h (1 Bft) 100,00 %
22.09.2016 06:04 7,2 C 95 % 1020,5 hPa 0,0 l/m 0,8 km/h (0 Bft) S 184 0 min 0,000 mm 0,0 UV-I 0 W/m 6,5 C 7,2 C 1,6 km/h (1 Bft) 100,00 %
22.09.2016 06:06 7,1 C 95 % 1020,6 hPa 0,0 l/m 0,2 km/h (0 Bft) S 184 0 min 0,000 mm 0,0 UV-I 0 W/m 6,4 C 7,1 C 1,6 km/h (1 Bft) 100,00 %
22.09.2016 06:08 7,1 C 95 % 1020,6 hPa 0,0 l/m 0,0 km/h (0 Bft) S 184 0 min 0,000 mm 0,0 UV-I 0 W/m 6,4 C 7,1 C 0,0 km/h (0 Bft) 98,00 %
22.09.2016 06:10 7,1 C 95 % 1020,6 hPa 0,0 l/m 0,2 km/h (0 Bft) S 184 0 min 0,000 mm 0,0 UV-I 0 W/m 6,4 C 7,1 C 1,6 km/h (1 Bft) 97,87 %
22.09.2016 06:12 6,9 C 95 % 1020,6 hPa 0,0 l/m 0,2 km/h (0 Bft) S 184 0 min 0,000 mm 0,0 UV-I 0 W/m 6,2 C 6,9 C 1,6 km/h (1 Bft) 97,73 %
22.09.2016 06:14 6,8 C 95 % 1020,6 hPa 0,0 l/m 0,0 km/h (0 Bft) S 184 0 min 0,000 mm 0,0 UV-I 0 W/m 6,1 C 6,8 C 0,0 km/h (0 Bft) 100,00 %
22.09.2016 06:16 6,8 C 95 % 1020,6 hPa 0,0 l/m 0,0 km/h (0 Bft) S 184 0 min 0,000 mm 0,0 UV-I 0 W/m 6,1 C 6,8 C 0,0 km/h (0 Bft) 97,87 %
22.09.2016 06:18 6,8 C 96 % 1020,6 hPa 0,0 l/m 0,0 km/h (0 Bft) S 184 0 min 0,000 mm 0,0 UV-I 0 W/m 6,2 C 6,8 C 0,0 km/h (0 Bft) 100,00 %
22.09.2016 06:20 6,8 C 96 % 1020,6 hPa 0,0 l/m 0,0 km/h (0 Bft) S 184 0 min 0,000 mm 0,0 UV-I 0 W/m 6,2 C 6,8 C 0,0 km/h (0 Bft) 100,00 %
22.09.2016 06:22 6,8 C 96 % 1020,6 hPa 0,0 l/m 0,0 km/h (0 Bft) S 184 0 min 0,000 mm 0,0 UV-I 0 W/m 6,2 C 6,8 C 0,0 km/h (0 Bft) 100,00 %
22.09.2016 06:24 6,7 C 96 % 1020,6 hPa 0,0 l/m 0,0 km/h (0 Bft) S 184 0 min 0,000 mm 0,0 UV-I 0 W/m 6,1 C 6,7 C 0,0 km/h (0 Bft) 100,00 %
22.09.2016 06:26 6,7 C 95 % 1020,6 hPa 0,0 l/m 0,0 km/h (0 Bft) S 184 0 min 0,000 mm 0,0 UV-I 0 W/m 6,0 C 6,7 C 0,0 km/h (0 Bft) 100,00 %
22.09.2016 06:28 6,6 C 95 % 1020,6 hPa 0,0 l/m 0,0 km/h (0 Bft) S 184 0 min 0,000 mm 0,0 UV-I 0 W/m 5,9 C 6,6 C 0,0 km/h (0 Bft) 100,00 %
22.09.2016 06:30 6,6 C 95 % 1020,6 hPa 0,0 l/m 0,4 km/h (0 Bft) S 184 0 min 0,000 mm 0,0 UV-I 0 W/m 5,9 C 6,6 C 3,2 km/h (1 Bft) 100,00 %
22.09.2016 06:32 6,6 C 96 % 1020,6 hPa 0,0 l/m 1,7 km/h (1 Bft) S 184 0 min 0,000 mm 0,0 UV-I 0 W/m 6,0 C 6,6 C 3,2 km/h (1 Bft) 98,11 %
22.09.2016 06:34 6,6 C 96 % 1020,6 hPa 0,0 l/m 1,9 km/h (1 Bft) S 184 0 min 0,000 mm 0,0 UV-I 0 W/m 6,0 C 6,6 C 3,2 km/h (1 Bft) 100,00 %
22.09.2016 06:36 6,6 C 96 % 1020,7 hPa 0,0 l/m 1,2 km/h (1 Bft) S 184 0 min 0,000 mm 0,0 UV-I 0 W/m 6,0 C 6,6 C 1,6 km/h (1 Bft) 100,00 %
22.09.2016 06:38 6,6 C 96 % 1020,7 hPa 0,0 l/m 1,0 km/h (0 Bft) S 184 0 min 0,000 mm 0,0 UV-I 0 W/m 6,0 C 6,6 C 1,6 km/h (1 Bft) 100,00 %
22.09.2016 06:40 6,6 C 96 % 1020,7 hPa 0,0 l/m 0,6 km/h (0 Bft) S 184 0 min 0,000 mm 0,0 UV-I 0 W/m 6,0 C 6,6 C 1,6 km/h (1 Bft) 97,37 %
22.09.2016 06:42 6,6 C 96 % 1020,7 hPa 0,0 l/m 0,1 km/h (0 Bft) S 184 0 min 0,000 mm 0,0 UV-I 0 W/m 6,0 C 6,6 C 1,6 km/h (1 Bft) 97,87 %
22.09.2016 06:44 6,6 C 96 % 1020,7 hPa 0,0 l/m 1,9 km/h (1 Bft) S 184 0 min 0,000 mm 0,0 UV-I 0 W/m 6,0 C 6,6 C 3,2 km/h (1 Bft) 97,56 %
22.09.2016 06:46 6,6 C 96 % 1020,7 hPa 0,0 l/m 2,7 km/h (1 Bft) S 184 0 min 0,000 mm 0,0 UV-I 0 W/m 6,0 C 6,6 C 3,2 km/h (1 Bft) 98,00 %
22.09.2016 06:48 6,6 C 96 % 1020,7 hPa 0,0 l/m 1,9 km/h (1 Bft) S 184 0 min 0,000 mm 0,0 UV-I 0 W/m 6,0 C 6,6 C 4,8 km/h (1 Bft) 94,34 %
22.09.2016 06:50 6,5 C 96 % 1020,7 hPa 0,0 l/m 2,6 km/h (1 Bft) S 184 0 min 0,000 mm 0,0 UV-I 4 W/m 5,9 C 6,5 C 3,2 km/h (1 Bft) 98,00 %
22.09.2016 06:52 6,6 C 96 % 1020,8 hPa 0,0 l/m 3,1 km/h (1 Bft) S 184 0 min 0,000 mm 0,0 UV-I 5 W/m 6,0 C 6,6 C 4,8 km/h (1 Bft) 97,87 %
22.09.2016 06:54 6,6 C 96 % 1020,8 hPa 0,0 l/m 3,7 km/h (1 Bft) S 184 0 min 0,000 mm 0,0 UV-I 5 W/m 6,0 C 6,6 C 4,8 km/h (1 Bft) 93,62 %
22.09.2016 06:56 6,6 C 96 % 1020,8 hPa 0,0 l/m 2,8 km/h (1 Bft) S 184 0 min 0,000 mm 0,0 UV-I 7 W/m 6,0 C 6,6 C 4,8 km/h (1 Bft) 97,37 %
22.09.2016 06:58 6,5 C 96 % 1020,8 hPa 0,0 l/m 1,0 km/h (0 Bft) S 184 0 min 0,000 mm 0,0 UV-I 8 W/m 5,9 C 6,5 C 3,2 km/h (1 Bft) 97,87 %
22.09.2016 07:00 6,5 C 96 % 1020,8 hPa 0,0 l/m 3,0 km/h (1 Bft) S 184 0 min 0,000 mm 0,0 UV-I 9 W/m 5,9 C 6,5 C 4,8 km/h (1 Bft) 98,00 %
22.09.2016 07:02 6,5 C 96 % 1020,7 hPa 0,0 l/m 3,8 km/h (1 Bft) S 173 2 min 0,000 mm 0,0 UV-I 11 W/m 5,9 C 6,5 C 6,4 km/h (2 Bft) 96,00 %
22.09.2016 07:04 6,5 C 96 % 1020,8 hPa 0,0 l/m 3,4 km/h (1 Bft) S 173 0 min 0,000 mm 0,0 UV-I 12 W/m 5,9 C 6,5 C 4,8 km/h (1 Bft) 97,87 %
22.09.2016 07:06 6,6 C 96 % 1020,8 hPa 0,0 l/m 2,8 km/h (1 Bft) S 173 0 min 0,000 mm 0,0 UV-I 13 W/m 6,0 C 6,6 C 4,8 km/h (1 Bft) 95,83 %
22.09.2016 07:08 6,6 C 96 % 1020,8 hPa 0,0 l/m 2,6 km/h (1 Bft) S 173 0 min 0,000 mm 0,0 UV-I 14 W/m 6,0 C 6,6 C 4,8 km/h (1 Bft) 97,87 %
22.09.2016 07:10 6,7 C 96 % 1020,8 hPa 0,0 l/m 3,3 km/h (1 Bft) S 180 0 min 0,000 mm 0,0 UV-I 16 W/m 6,1 C 6,7 C 6,4 km/h (2 Bft) 97,37 %
22.09.2016 07:12 6,7 C 96 % 1020,8 hPa 0,0 l/m 4,8 km/h (1 Bft) S 182 0 min 0,000 mm 0,0 UV-I 17 W/m 6,1 C 6,7 C 8,0 km/h (2 Bft) 98,11 %
22.09.2016 07:14 6,8 C 96 % 1020,8 hPa 0,0 l/m 5,2 km/h (1 Bft) S-SW 196 0 min 0,000 mm 0,0 UV-I 19 W/m 6,2 C 6,8 C 6,4 km/h (2 Bft) 100,00 %
22.09.2016 07:16 6,8 C 96 % 1020,8 hPa 0,0 l/m 4,2 km/h (1 Bft) S 182 0 min 0,000 mm 0,0 UV-I 20 W/m 6,2 C 6,8 C 6,4 km/h (2 Bft) 100,00 %
22.09.2016 07:18 6,8 C 96 % 1020,8 hPa 0,0 l/m 4,1 km/h (1 Bft) S 181 0 min 0,000 mm 0,0 UV-I 22 W/m 6,2 C 6,8 C 4,8 km/h (1 Bft) 97,87 %
22.09.2016 07:20 6,9 C 96 % 1020,8 hPa 0,0 l/m 4,2 km/h (1 Bft) S 184 0 min 0,000 mm 0,0 UV-I 25 W/m 6,3 C 6,9 C 6,4 km/h (2 Bft) 100,00 %
22.09.2016 07:22 6,9 C 96 % 1020,8 hPa 0,0 l/m 5,2 km/h (1 Bft) S 191 0 min 0,000 mm 0,0 UV-I 26 W/m 6,3 C 6,9 C 6,4 km/h (2 Bft) 95,74 %
22.09.2016 07:24 7,0 C 96 % 1020,8 hPa 0,0 l/m 5,0 km/h (1 Bft) S 187 0 min 0,000 mm 0,0 UV-I 27 W/m 6,4 C 7,0 C 6,4 km/h (2 Bft) 98,00 %
22.09.2016 07:26 7,1 C 96 % 1020,8 hPa 0,0 l/m 5,9 km/h (2 Bft) S 189 0 min 0,000 mm 0,0 UV-I 29 W/m 6,5 C 7,1 C 8,0 km/h (2 Bft) 97,87 %
22.09.2016 07:28 7,2 C 96 % 1020,8 hPa 0,0 l/m 5,5 km/h (1 Bft) S 178 0 min 0,000 mm 0,0 UV-I 31 W/m 6,6 C 7,2 C 8,0 km/h (2 Bft) 100,00 %
22.09.2016 07:30 7,3 C 96 % 1020,8 hPa 0,0 l/m 5,2 km/h (1 Bft) S 185 0 min 0,000 mm 0,0 UV-I 33 W/m 6,7 C 7,3 C 8,0 km/h (2 Bft) 100,00 %
22.09.2016 07:32 7,3 C 96 % 1020,9 hPa 0,0 l/m 5,2 km/h (1 Bft) S 180 0 min 0,000 mm 0,0 UV-I 44 W/m 6,7 C 7,3 C 8,0 km/h (2 Bft) 94,74 %
22.09.2016 07:34 7,4 C 96 % 1020,9 hPa 0,0 l/m 5,3 km/h (1 Bft) S 188 0 min 0,000 mm 0,0 UV-I 60 W/m 6,8 C 7,4 C 8,0 km/h (2 Bft) 100,00 %
22.09.2016 07:36 7,5 C 96 % 1020,9 hPa 0,0 l/m 4,4 km/h (1 Bft) S 180 0 min 0,000 mm 0,0 UV-I 62 W/m 6,9 C 7,5 C 6,4 km/h (2 Bft) 100,00 %
22.09.2016 07:38 7,6 C 96 % 1020,9 hPa 0,0 l/m 5,1 km/h (1 Bft) S 173 0 min 0,000 mm 0,0 UV-I 66 W/m 7,0 C 7,6 C 9,7 km/h (2 Bft) 100,00 %
22.09.2016 07:40 7,6 C 96 % 1020,9 hPa 0,0 l/m 6,9 km/h (2 Bft) S-SO 161 0 min 0,000 mm 0,0 UV-I 68 W/m 7,0 C 7,2 C 9,7 km/h (2 Bft) 100,00 %
22.09.2016 07:42 7,7 C 96 % 1020,9 hPa 0,0 l/m 5,4 km/h (1 Bft) S 169 0 min 0,000 mm 0,0 UV-I 70 W/m 7,1 C 7,7 C 8,0 km/h (2 Bft) 98,08 %
22.09.2016 07:44 7,8 C 96 % 1021,0 hPa 0,0 l/m 5,3 km/h (1 Bft) S 188 0 min 0,000 mm 0,0 UV-I 75 W/m 7,2 C 7,8 C 8,0 km/h (2 Bft) 100,00 %
22.09.2016 07:46 7,9 C 96 % 1021,0 hPa 0,0 l/m 4,3 km/h (1 Bft) S 184 2 min 0,000 mm 0,0 UV-I 84 W/m 7,3 C 7,9 C 8,0 km/h (2 Bft) 100,00 %
22.09.2016 07:48 7,9 C 95 % 1021,0 hPa 0,0 l/m 5,5 km/h (1 Bft) S-SO 167 2 min 0,000 mm 0,0 UV-I 92 W/m 7,1 C 7,9 C 9,7 km/h (2 Bft) 100,00 %
22.09.2016 07:50 8,0 C 95 % 1021,0 hPa 0,0 l/m 5,4 km/h (1 Bft) S 188 2 min 0,000 mm 0,0 UV-I 102 W/m 7,2 C 8,0 C 9,7 km/h (2 Bft) 100,00 %
22.09.2016 07:52 8,1 C 95 % 1021,1 hPa 0,0 l/m 6,0 km/h (2 Bft) S-SW 198 2 min 0,000 mm 0,0 UV-I 110 W/m 7,3 C 8,1 C 8,0 km/h (2 Bft) 95,74 %
22.09.2016 07:54 8,2 C 95 % 1021,1 hPa 0,0 l/m 5,7 km/h (1 Bft) S-SW 207 2 min 0,000 mm 0,0 UV-I 116 W/m 7,4 C 8,2 C 8,0 km/h (2 Bft) 98,00 %
22.09.2016 07:56 8,2 C 95 % 1021,1 hPa 0,0 l/m 5,0 km/h (1 Bft) S 188 2 min 0,000 mm 0,0 UV-I 121 W/m 7,4 C 8,2 C 8,0 km/h (2 Bft) 100,00 %
22.09.2016 07:58 8,3 C 95 % 1021,1 hPa 0,0 l/m 5,8 km/h (2 Bft) S-SW 192 2 min 0,000 mm 0,0 UV-I 128 W/m 7,5 C 8,3 C 9,7 km/h (2 Bft) 100,00 %
22.09.2016 08:00 8,4 C 95 % 1021,1 hPa 0,0 l/m 5,5 km/h (1 Bft) S 178 2 min 0,025 mm 0,0 UV-I 134 W/m 7,6 C 8,4 C 8,0 km/h (2 Bft) 97,37 %
22.09.2016 08:02 8,4 C 95 % 1021,1 hPa 0,0 l/m 4,3 km/h (1 Bft) S 184 2 min 0,000 mm 0,0 UV-I 140 W/m 7,6 C 8,4 C 6,4 km/h (2 Bft) 98,11 %
22.09.2016 08:04 8,6 C 95 % 1021,1 hPa 0,0 l/m 6,7 km/h (2 Bft) S-SO 163 2 min 0,000 mm 0,0 UV-I 143 W/m 7,8 C 8,4 C 9,7 km/h (2 Bft) 97,56 %
22.09.2016 08:06 8,7 C 95 % 1021,1 hPa 0,0 l/m 5,6 km/h (1 Bft) S-SW 198 2 min 0,000 mm 0,0 UV-I 144 W/m 7,9 C 8,7 C 8,0 km/h (2 Bft) 98,00 %
22.09.2016 08:08 8,7 C 95 % 1021,1 hPa 0,0 l/m 5,2 km/h (1 Bft) S-SO 167 2 min 0,000 mm 0,0 UV-I 144 W/m 7,9 C 8,7 C 8,0 km/h (2 Bft) 100,00 %
22.09.2016 08:10 8,8 C 94 % 1021,1 hPa 0,0 l/m 5,1 km/h (1 Bft) S-SW 195 2 min 0,000 mm 0,0 UV-I 144 W/m 7,9 C 8,8 C 9,7 km/h (2 Bft) 100,00 %
22.09.2016 08:12 8,9 C 94 % 1021,1 hPa 0,0 l/m 3,4 km/h (1 Bft) S-SW 207 2 min 0,000 mm 0,0 UV-I 130 W/m 8,0 C 8,9 C 6,4 km/h (2 Bft) 100,00 %
22.09.2016 08:14 8,9 C 94 % 1021,2 hPa 0,0 l/m 5,7 km/h (1 Bft) S-SW 194 2 min 0,000 mm 0,0 UV-I 135 W/m 8,0 C 8,9 C 9,7 km/h (2 Bft) 100,00 %
22.09.2016 08:16 9,0 C 94 % 1021,2 hPa 0,0 l/m 5,1 km/h (1 Bft) S-SW 196 2 min 0,000 mm 0,0 UV-I 154 W/m 8,1 C 9,0 C 8,0 km/h (2 Bft) 100,00 %
22.09.2016 08:18 9,0 C 94 % 1021,2 hPa 0,0 l/m 5,4 km/h (1 Bft) SW 229 2 min 0,000 mm 0,0 UV-I 153 W/m 8,1 C 9,0 C 8,0 km/h (2 Bft) 100,00 %
22.09.2016 08:20 9,1 C 94 % 1021,2 hPa 0,0 l/m 4,5 km/h (1 Bft) S 181 2 min 0,000 mm 0,0 UV-I 155 W/m 8,2 C 9,1 C 8,0 km/h (2 Bft) 100,00 %
22.09.2016 08:22 9,2 C 94 % 1021,2 hPa 0,0 l/m 4,9 km/h (1 Bft) SW 231 2 min 0,000 mm 0,0 UV-I 166 W/m 8,3 C 9,2 C 6,4 km/h (2 Bft) 100,00 %
22.09.2016 08:24 9,3 C 93 % 1021,3 hPa 0,0 l/m 2,7 km/h (1 Bft) SW 234 2 min 0,000 mm 0,0 UV-I 171 W/m 8,2 C 9,3 C 4,8 km/h (1 Bft) 100,00 %
22.09.2016 08:26 9,3 C 93 % 1021,3 hPa 0,0 l/m 1,1 km/h (1 Bft) SW 234 2 min 0,000 mm 0,0 UV-I 178 W/m 8,2 C 9,3 C 3,2 km/h (1 Bft) 100,00 %
22.09.2016 08:28 9,4 C 93 % 1021,4 hPa 0,0 l/m 1,2 km/h (1 Bft) W-SW 248 2 min 0,000 mm 0,0 UV-I 184 W/m 8,3 C 9,4 C 3,2 km/h (1 Bft) 100,00 %
22.09.2016 08:30 9,6 C 93 % 1021,4 hPa 0,0 l/m 0,3 km/h (0 Bft) W-SW 248 2 min 0,000 mm 0,0 UV-I 188 W/m 8,5 C 9,6 C 1,6 km/h (1 Bft) 100,00 %
22.09.2016 08:32 9,6 C 93 % 1021,4 hPa 0,0 l/m 0,1 km/h (0 Bft) W-SW 248 2 min 0,000 mm 0,0 UV-I 192 W/m 8,5 C 9,6 C 1,6 km/h (1 Bft) 100,00 %
22.09.2016 08:34 9,7 C 93 % 1021,4 hPa 0,0 l/m 0,6 km/h (0 Bft) W-SW 248 2 min 0,000 mm 0,0 UV-I 198 W/m 8,6 C 9,7 C 3,2 km/h (1 Bft) 100,00 %
22.09.2016 08:36 9,7 C 92 % 1021,5 hPa 0,0 l/m 1,6 km/h (1 Bft) W 261 2 min 0,000 mm 0,0 UV-I 203 W/m 8,5 C 9,7 C 3,2 km/h (1 Bft) 100,00 %
22.09.2016 08:38 9,8 C 92 % 1021,5 hPa 0,0 l/m 1,3 km/h (1 Bft) W 261 2 min 0,000 mm 0,0 UV-I 209 W/m 8,6 C 9,8 C 3,2 km/h (1 Bft) 100,00 %
22.09.2016 08:40 9,8 C 91 % 1021,5 hPa 0,0 l/m 1,6 km/h (1 Bft) NW 307 2 min 0,000 mm 0,0 UV-I 215 W/m 8,4 C 9,8 C 4,8 km/h (1 Bft) 100,00 %
22.09.2016 08:42 9,8 C 91 % 1021,5 hPa 0,0 l/m 1,0 km/h (0 Bft) NW 307 2 min 0,000 mm 0,0 UV-I 221 W/m 8,4 C 9,8 C 3,2 km/h (1 Bft) 98,00 %
22.09.2016 08:44 9,9 C 91 % 1021,5 hPa 0,0 l/m 2,1 km/h (1 Bft) W-SW 246 2 min 0,000 mm 0,4 UV-I 228 W/m 8,5 C 9,9 C 3,2 km/h (1 Bft) 98,21 %
22.09.2016 08:46 9,9 C 91 % 1021,6 hPa 0,0 l/m 3,7 km/h (1 Bft) W 273 2 min 0,000 mm 0,5 UV-I 236 W/m 8,5 C 9,9 C 6,4 km/h (2 Bft) 97,37 %
22.09.2016 08:48 9,9 C 91 % 1021,6 hPa 0,0 l/m 3,1 km/h (1 Bft) W 259 2 min 0,000 mm 0,5 UV-I 246 W/m 8,5 C 9,9 C 4,8 km/h (1 Bft) 98,00 %
22.09.2016 08:50 9,9 C 91 % 1021,6 hPa 0,0 l/m 2,8 km/h (1 Bft) S-SW 211 2 min 0,000 mm 0,5 UV-I 261 W/m 8,5 C 9,9 C 4,8 km/h (1 Bft) 97,37 %
22.09.2016 08:52 10,0 C 90 % 1021,6 hPa 0,0 l/m 2,4 km/h (1 Bft) S-SW 208 2 min 0,000 mm 0,5 UV-I 270 W/m 8,4 C 10,0 C 4,8 km/h (1 Bft) 96,23 %
22.09.2016 08:54 10,1 C 91 % 1021,7 hPa 0,0 l/m 2,8 km/h (1 Bft) S-SW 197 2 min 0,000 mm 0,6 UV-I 269 W/m 8,7 C 10,1 C 6,4 km/h (2 Bft) 97,87 %
22.09.2016 08:56 10,2 C 90 % 1021,7 hPa 0,0 l/m 4,8 km/h (1 Bft) S-SW 209 2 min 0,000 mm 0,6 UV-I 271 W/m 8,6 C 10,2 C 6,4 km/h (2 Bft) 96,00 %
22.09.2016 08:58 10,2 C 90 % 1021,7 hPa 0,0 l/m 1,6 km/h (1 Bft) S-SW 209 2 min 0,000 mm 0,6 UV-I 278 W/m 8,6 C 10,2 C 4,8 km/h (1 Bft) 96,00 %
22.09.2016 09:00 10,2 C 90 % 1021,7 hPa 0,0 l/m 3,4 km/h (1 Bft) W-SW 244 2 min 0,102 mm 0,6 UV-I 285 W/m 8,6 C 10,2 C 4,8 km/h (1 Bft) 97,44 %
22.09.2016 09:02 10,2 C 90 % 1021,7 hPa 0,0 l/m 1,7 km/h (1 Bft) W-SW 244 2 min 0,000 mm 0,6 UV-I 293 W/m 8,6 C 10,2 C 3,2 km/h (1 Bft) 98,18 %
22.09.2016 09:04 10,3 C 90 % 1021,7 hPa 0,0 l/m 2,8 km/h (1 Bft) S-SW 202 2 min 0,000 mm 0,7 UV-I 305 W/m 8,7 C 10,3 C 4,8 km/h (1 Bft) 97,87 %
22.09.2016 09:06 10,5 C 90 % 1021,7 hPa 0,0 l/m 2,3 km/h (1 Bft) SW 234 2 min 0,000 mm 0,7 UV-I 320 W/m 8,9 C 10,5 C 6,4 km/h (2 Bft) 97,44 %
22.09.2016 09:08 10,6 C 90 % 1021,8 hPa 0,0 l/m 4,2 km/h (1 Bft) SW 225 2 min 0,000 mm 0,7 UV-I 340 W/m 9,0 C 10,6 C 6,4 km/h (2 Bft) 97,73 %
22.09.2016 09:10 10,7 C 89 % 1021,8 hPa 0,0 l/m 2,7 km/h (1 Bft) W-SW 245 2 min 0,000 mm 0,8 UV-I 325 W/m 9,0 C 10,7 C 4,8 km/h (1 Bft) 96,00 %
22.09.2016 09:12 10,6 C 89 % 1021,8 hPa 0,0 l/m 2,7 km/h (1 Bft) W-SW 237 0 min 0,000 mm 0,7 UV-I 183 W/m 8,9 C 10,6 C 4,8 km/h (1 Bft) 97,87 %
22.09.2016 09:14 10,5 C 89 % 1021,9 hPa 0,0 l/m 2,5 km/h (1 Bft) W-SW 237 0 min 0,000 mm 0,7 UV-I 157 W/m 8,8 C 10,5 C 4,8 km/h (1 Bft) 97,14 %
22.09.2016 09:16 10,4 C 88 % 1021,9 hPa 0,0 l/m 3,3 km/h (1 Bft) W 259 0 min 0,000 mm 0,7 UV-I 147 W/m 8,5 C 10,4 C 4,8 km/h (1 Bft) 100,00 %
22.09.2016 09:18 10,3 C 88 % 1022,0 hPa 0,0 l/m 1,3 km/h (1 Bft) W 259 0 min 0,000 mm 0,7 UV-I 149 W/m 8,4 C 10,3 C 3,2 km/h (1 Bft) 100,00 %
22.09.2016 09:20 10,3 C 88 % 1022,0 hPa 0,0 l/m 0,4 km/h (0 Bft) W 259 0 min 0,000 mm 0,7 UV-I 156 W/m 8,4 C 10,3 C 1,6 km/h (1 Bft) 100,00 %
22.09.2016 09:22 10,4 C 89 % 1022,0 hPa 0,0 l/m 0,7 km/h (0 Bft) W 259 0 min 0,000 mm 0,8 UV-I 184 W/m 8,7 C 10,4 C 3,2 km/h (1 Bft) 100,00 %
22.09.2016 09:24 10,5 C 89 % 1022,1 hPa 0,0 l/m 0,6 km/h (0 Bft) W 259 0 min 0,000 mm 0,9 UV-I 212 W/m 8,8 C 10,5 C 1,6 km/h (1 Bft) 98,00 %
22.09.2016 09:26 10,6 C 89 % 1022,1 hPa 0,0 l/m 0,1 km/h (0 Bft) W 259 0 min 0,000 mm 0,9 UV-I 190 W/m 8,9 C 10,6 C 1,6 km/h (1 Bft) 100,00 %
22.09.2016 09:28 10,7 C 89 % 1022,1 hPa 0,0 l/m 0,3 km/h (0 Bft) W 259 0 min 0,000 mm 0,9 UV-I 180 W/m 9,0 C 10,7 C 1,6 km/h (1 Bft) 100,00 %
22.09.2016 09:30 10,7 C 88 % 1022,2 hPa 0,0 l/m 0,5 km/h (0 Bft) W 259 0 min 0,000 mm 0,9 UV-I 186 W/m 8,8 C 10,7 C 1,6 km/h (1 Bft) 100,00 %
22.09.2016 09:32 10,7 C 88 % 1022,2 hPa 0,0 l/m 0,9 km/h (0 Bft) W 259 0 min 0,000 mm 0,9 UV-I 185 W/m 8,8 C 10,7 C 3,2 km/h (1 Bft) 97,87 %
22.09.2016 09:34 10,7 C 88 % 1022,1 hPa 0,0 l/m 0,9 km/h (0 Bft) W 259 0 min 0,000 mm 0,9 UV-I 173 W/m 8,8 C 10,7 C 3,2 km/h (1 Bft) 100,00 %
22.09.2016 09:36 10,7 C 88 % 1022,2 hPa 0,0 l/m 0,1 km/h (0 Bft) W 259 2 min 0,000 mm 1,0 UV-I 245 W/m 8,8 C 10,7 C 1,6 km/h (1 Bft) 100,00 %
22.09.2016 09:38 10,8 C 88 % 1022,2 hPa 0,0 l/m 0,1 km/h (0 Bft) W 259 2 min 0,000 mm 0,9 UV-I 276 W/m 8,9 C 10,8 C 1,6 km/h (1 Bft) 100,00 %
22.09.2016 09:40 10,8 C 87 % 1022,2 hPa 0,0 l/m 0,0 km/h (0 Bft) W 259 0 min 0,000 mm 0,9 UV-I 224 W/m 8,7 C 10,8 C 0,0 km/h (0 Bft) 100,00 %
22.09.2016 09:42 10,8 C 88 % 1022,2 hPa 0,0 l/m 0,9 km/h (0 Bft) W 259 0 min 0,000 mm 0,9 UV-I 192 W/m 8,9 C 10,8 C 3,2 km/h (1 Bft) 100,00 %
22.09.2016 09:44 10,9 C 89 % 1022,3 hPa 0,0 l/m 2,8 km/h (1 Bft) W 259 0 min 0,000 mm 1,0 UV-I 207 W/m 9,2 C 10,9 C 4,8 km/h (1 Bft) 100,00 %
22.09.2016 09:46 10,9 C 89 % 1022,3 hPa 0,0 l/m 2,3 km/h (1 Bft) W-NW 283 0 min 0,000 mm 1,0 UV-I 200 W/m 9,2 C 10,9 C 3,2 km/h (1 Bft) 100,00 %
22.09.2016 09:48 10,8 C 90 % 1022,3 hPa 0,0 l/m 1,7 km/h (1 Bft) W-NW 296 0 min 0,000 mm 1,0 UV-I 191 W/m 9,2 C 10,8 C 4,8 km/h (1 Bft) 97,87 %
22.09.2016 09:50 10,9 C 91 % 1022,4 hPa 0,0 l/m 3,5 km/h (1 Bft) N-NO 14 0 min 0,000 mm 1,0 UV-I 197 W/m 9,5 C 10,9 C 4,8 km/h (1 Bft) 98,00 %
22.09.2016 09:52 10,9 C 91 % 1022,4 hPa 0,0 l/m 2,5 km/h (1 Bft) N-NO 17 0 min 0,000 mm 1,0 UV-I 204 W/m 9,5 C 10,9 C 4,8 km/h (1 Bft) 100,00 %
22.09.2016 09:54 10,9 C 91 % 1022,4 hPa 0,0 l/m 4,0 km/h (1 Bft) NO 34 0 min 0,000 mm 1,0 UV-I 224 W/m 9,5 C 10,9 C 4,8 km/h (1 Bft) 100,00 %
22.09.2016 09:56 10,9 C 91 % 1022,4 hPa 0,0 l/m 3,7 km/h (1 Bft) N-NO 17 0 min 0,000 mm 1,1 UV-I 214 W/m 9,5 C 10,9 C 6,4 km/h (2 Bft) 100,00 %
22.09.2016 09:58 11,1 C 91 % 1022,4 hPa 0,0 l/m 2,5 km/h (1 Bft) N-NO 26 0 min 0,000 mm 1,1 UV-I 212 W/m 9,7 C 11,1 C 4,8 km/h (1 Bft) 100,00 %
22.09.2016 10:00 11,1 C 90 % 1022,4 hPa 0,0 l/m 2,5 km/h (1 Bft) N-NO 26 0 min 0,102 mm 1,1 UV-I 206 W/m 9,5 C 11,1 C 4,8 km/h (1 Bft) 100,00 %
22.09.2016 10:02 11,1 C 89 % 1022,5 hPa 0,0 l/m 3,1 km/h (1 Bft) N-NO 26 2 min 0,000 mm 1,3 UV-I 288 W/m 9,4 C 11,1 C 4,8 km/h (1 Bft) 100,00 %
22.09.2016 10:04 11,3 C 89 % 1022,5 hPa 0,0 l/m 1,8 km/h (1 Bft) N-NO 26 2 min 0,000 mm 1,3 UV-I 460 W/m 9,6 C 11,3 C 3,2 km/h (1 Bft) 100,00 %
22.09.2016 10:06 11,4 C 88 % 1022,5 hPa 0,0 l/m 1,8 km/h (1 Bft) N-NO 26 2 min 0,000 mm 1,3 UV-I 374 W/m 9,5 C 11,4 C 4,8 km/h (1 Bft) 100,00 %
22.09.2016 10:08 11,5 C 89 % 1022,5 hPa 0,0 l/m 3,5 km/h (1 Bft) NO 36 0 min 0,000 mm 1,3 UV-I 268 W/m 9,8 C 11,5 C 4,8 km/h (1 Bft) 100,00 %
22.09.2016 10:10 11,4 C 87 % 1022,5 hPa 0,0 l/m 2,7 km/h (1 Bft) NO 36 0 min 0,000 mm 1,3 UV-I 248 W/m 9,3 C 11,4 C 4,8 km/h (1 Bft) 100,00 %
22.09.2016 10:12 11,6 C 89 % 1022,5 hPa 0,0 l/m 2,8 km/h (1 Bft) NO 36 2 min 0,000 mm 1,4 UV-I 375 W/m 9,8 C 11,6 C 3,2 km/h (1 Bft) 100,00 %
22.09.2016 10:14 11,6 C 87 % 1022,5 hPa 0,0 l/m 2,2 km/h (1 Bft) NO 36 2 min 0,000 mm 1,4 UV-I 436 W/m 9,5 C 11,6 C 3,2 km/h (1 Bft) 98,11 %
22.09.2016 10:16 11,7 C 88 % 1022,5 hPa 0,0 l/m 2,9 km/h (1 Bft) NO 36 0 min 0,000 mm 1,5 UV-I 276 W/m 9,8 C 11,7 C 4,8 km/h (1 Bft) 97,87 %
22.09.2016 10:18 11,8 C 86 % 1022,5 hPa 0,0 l/m 3,0 km/h (1 Bft) NO 39 2 min 0,000 mm 1,6 UV-I 407 W/m 9,5 C 11,8 C 4,8 km/h (1 Bft) 97,87 %
22.09.2016 10:20 11,8 C 86 % 1022,5 hPa 0,0 l/m 2,7 km/h (1 Bft) NO 40 2 min 0,000 mm 1,6 UV-I 464 W/m 9,5 C 11,8 C 4,8 km/h (1 Bft) 100,00 %
22.09.2016 10:22 11,9 C 86 % 1022,5 hPa 0,0 l/m 3,1 km/h (1 Bft) NO 48 2 min 0,000 mm 1,7 UV-I 470 W/m 9,6 C 11,9 C 6,4 km/h (2 Bft) 100,00 %
22.09.2016 10:24 12,1 C 86 % 1022,5 hPa 0,0 l/m 3,1 km/h (1 Bft) NO 48 2 min 0,000 mm 1,7 UV-I 468 W/m 9,8 C 12,1 C 4,8 km/h (1 Bft) 97,87 %
22.09.2016 10:26 12,2 C 87 % 1022,5 hPa 0,0 l/m 3,0 km/h (1 Bft) NO 49 2 min 0,000 mm 1,7 UV-I 474 W/m 10,1 C 12,2 C 6,4 km/h (2 Bft) 97,87 %
22.09.2016 10:28 12,3 C 87 % 1022,5 hPa 0,0 l/m 3,3 km/h (1 Bft) NO 50 2 min 0,000 mm 1,8 UV-I 483 W/m 10,2 C 12,3 C 4,8 km/h (1 Bft) 100,00 %
22.09.2016 10:30 12,6 C 88 % 1022,4 hPa 0,0 l/m 3,5 km/h (1 Bft) NO 40 2 min 0,000 mm 1,9 UV-I 490 W/m 10,7 C 12,6 C 6,4 km/h (2 Bft) 97,56 %
22.09.2016 10:32 12,7 C 86 % 1022,5 hPa 0,0 l/m 4,7 km/h (1 Bft) O 85 2 min 0,000 mm 1,9 UV-I 496 W/m 10,4 C 12,7 C 6,4 km/h (2 Bft) 100,00 %
22.09.2016 10:34 12,8 C 85 % 1022,5 hPa 0,0 l/m 6,5 km/h (2 Bft) O-NO 59 2 min 0,000 mm 1,9 UV-I 501 W/m 10,3 C 12,8 C 9,7 km/h (2 Bft) 95,74 %
22.09.2016 10:36 12,8 C 83 % 1022,4 hPa 0,0 l/m 3,4 km/h (1 Bft) O-NO 78 2 min 0,000 mm 2,0 UV-I 503 W/m 10,0 C 12,8 C 6,4 km/h (2 Bft) 98,00 %
22.09.2016 10:38 12,8 C 84 % 1022,4 hPa 0,0 l/m 3,6 km/h (1 Bft) O-NO 76 2 min 0,000 mm 2,0 UV-I 505 W/m 10,2 C 12,8 C 6,4 km/h (2 Bft) 97,37 %
22.09.2016 10:40 12,8 C 84 % 1022,4 hPa 0,0 l/m 3,7 km/h (1 Bft) NO 56 2 min 0,000 mm 2,0 UV-I 508 W/m 10,2 C 12,8 C 6,4 km/h (2 Bft) 96,00 %
22.09.2016 10:42 13,0 C 86 % 1022,4 hPa 0,0 l/m 5,0 km/h (1 Bft) O-NO 62 2 min 0,000 mm 2,0 UV-I 512 W/m 10,7 C 13,0 C 6,4 km/h (2 Bft) 95,74 %
22.09.2016 10:44 13,1 C 82 % 1022,4 hPa 0,0 l/m 2,8 km/h (1 Bft) O-NO 62 2 min 0,000 mm 2,1 UV-I 519 W/m 10,1 C 13,1 C 4,8 km/h (1 Bft) 98,00 %
22.09.2016 10:46 13,3 C 84 % 1022,4 hPa 0,0 l/m 4,6 km/h (1 Bft) O 85 2 min 0,000 mm 2,1 UV-I 521 W/m 10,7 C 13,3 C 6,4 km/h (2 Bft) 98,00 %
22.09.2016 10:48 13,5 C 82 % 1022,5 hPa 0,0 l/m 5,4 km/h (1 Bft) O-NO 72 2 min 0,000 mm 2,1 UV-I 527 W/m 10,5 C 13,5 C 8,0 km/h (2 Bft) 97,37 %
22.09.2016 10:50 13,5 C 80 % 1022,4 hPa 0,0 l/m 4,5 km/h (1 Bft) NO 46 2 min 0,000 mm 2,2 UV-I 532 W/m 10,1 C 13,5 C 6,4 km/h (2 Bft) 96,00 %
22.09.2016 10:52 13,6 C 80 % 1022,5 hPa 0,0 l/m 6,5 km/h (2 Bft) O 79 2 min 0,000 mm 2,2 UV-I 531 W/m 10,2 C 13,6 C 11,3 km/h (2 Bft) 96,00 %
22.09.2016 10:54 13,7 C 78 % 1022,5 hPa 0,0 l/m 5,1 km/h (1 Bft) O-NO 76 2 min 0,000 mm 2,2 UV-I 535 W/m 9,9 C 13,7 C 11,3 km/h (2 Bft) 97,87 %
22.09.2016 10:56 13,8 C 80 % 1022,5 hPa 0,0 l/m 5,7 km/h (1 Bft) O-NO 67 2 min 0,000 mm 2,2 UV-I 540 W/m 10,4 C 13,8 C 11,3 km/h (2 Bft) 95,24 %
22.09.2016 10:58 13,7 C 77 % 1022,4 hPa 0,0 l/m 4,4 km/h (1 Bft) O-NO 67 2 min 0,000 mm 2,2 UV-I 542 W/m 9,7 C 13,7 C 8,0 km/h (2 Bft) 98,08 %
22.09.2016 11:00 13,7 C 78 % 1022,5 hPa 0,0 l/m 4,9 km/h (1 Bft) O-NO 65 2 min 0,228 mm 2,3 UV-I 548 W/m 9,9 C 13,7 C 9,7 km/h (2 Bft) 100,00 %
22.09.2016 11:02 13,9 C 79 % 1022,5 hPa 0,0 l/m 5,3 km/h (1 Bft) O-NO 68 2 min 0,000 mm 2,3 UV-I 550 W/m 10,3 C 13,9 C 9,7 km/h (2 Bft) 100,00 %
22.09.2016 11:04 14,0 C 79 % 1022,5 hPa 0,0 l/m 5,8 km/h (2 Bft) O 90 2 min 0,000 mm 2,3 UV-I 557 W/m 10,4 C 14,0 C 14,5 km/h (3 Bft) 100,00 %
22.09.2016 11:06 14,1 C 77 % 1022,5 hPa 0,0 l/m 9,8 km/h (2 Bft) NO 47 2 min 0,000 mm 2,2 UV-I 554 W/m 10,1 C 12,2 C 14,5 km/h (3 Bft) 100,00 %
22.09.2016 11:08 14,0 C 79 % 1022,5 hPa 0,0 l/m 5,3 km/h (1 Bft) NO 44 2 min 0,000 mm 2,2 UV-I 563 W/m 10,4 C 14,0 C 8,0 km/h (2 Bft) 100,00 %
22.09.2016 11:10 14,2 C 78 % 1022,5 hPa 0,0 l/m 8,7 km/h (2 Bft) O 82 2 min 0,000 mm 2,1 UV-I 540 W/m 10,4 C 12,9 C 14,5 km/h (3 Bft) 100,00 %
22.09.2016 11:12 14,0 C 76 % 1022,5 hPa 0,0 l/m 8,7 km/h (2 Bft) NO 47 2 min 0,000 mm 2,3 UV-I 338 W/m 9,8 C 12,7 C 14,5 km/h (3 Bft) 100,00 %
22.09.2016 11:14 14,2 C 80 % 1022,5 hPa 0,0 l/m 4,7 km/h (1 Bft) N 11 2 min 0,000 mm 2,4 UV-I 583 W/m 10,8 C 14,2 C 8,0 km/h (2 Bft) 100,00 %
22.09.2016 11:16 14,4 C 80 % 1022,4 hPa 0,0 l/m 4,8 km/h (1 Bft) N-NO 26 2 min 0,000 mm 2,5 UV-I 586 W/m 11,0 C 14,4 C 9,7 km/h (2 Bft) 98,00 %
22.09.2016 11:18 14,4 C 78 % 1022,5 hPa 0,0 l/m 7,2 km/h (2 Bft) NO 53 2 min 0,000 mm 2,5 UV-I 586 W/m 10,6 C 13,9 C 14,5 km/h (3 Bft) 100,00 %
22.09.2016 11:20 14,5 C 77 % 1022,5 hPa 0,0 l/m 6,5 km/h (2 Bft) O-NO 59 2 min 0,000 mm 2,5 UV-I 590 W/m 10,5 C 14,5 C 12,9 km/h (3 Bft) 98,00 %
22.09.2016 11:22 14,5 C 75 % 1022,5 hPa 0,0 l/m 10,5 km/h (2 Bft) O 90 2 min 0,000 mm 2,5 UV-I 569 W/m 10,1 C 12,3 C 16,1 km/h (3 Bft) 100,00 %
22.09.2016 11:24 14,5 C 76 % 1022,5 hPa 0,0 l/m 9,1 km/h (2 Bft) O 83 2 min 0,000 mm 2,6 UV-I 602 W/m 10,3 C 13,0 C 14,5 km/h (3 Bft) 100,00 %
22.09.2016 11:26 14,6 C 75 % 1022,5 hPa 0,0 l/m 8,1 km/h (2 Bft) NO 56 2 min 0,000 mm 2,6 UV-I 601 W/m 10,2 C 13,6 C 12,9 km/h (3 Bft) 98,11 %
22.09.2016 11:28 14,5 C 76 % 1022,5 hPa 0,0 l/m 6,4 km/h (2 Bft) O 80 2 min 0,000 mm 2,5 UV-I 606 W/m 10,3 C 14,5 C 11,3 km/h (2 Bft) 97,56 %
22.09.2016 11:30 14,7 C 75 % 1022,5 hPa 0,0 l/m 8,3 km/h (2 Bft) O-NO 69 2 min 0,000 mm 2,6 UV-I 624 W/m 10,3 C 13,6 C 12,9 km/h (3 Bft) 100,00 %
22.09.2016 11:32 14,8 C 76 % 1022,5 hPa 0,0 l/m 9,3 km/h (2 Bft) O-SO 109 2 min 0,000 mm 2,7 UV-I 631 W/m 10,6 C 13,2 C 12,9 km/h (3 Bft) 100,00 %
22.09.2016 11:34 14,8 C 75 % 1022,5 hPa 0,0 l/m 5,0 km/h (1 Bft) O-NO 72 2 min 0,000 mm 2,6 UV-I 619 W/m 10,4 C 14,8 C 14,5 km/h (3 Bft) 100,00 %
22.09.2016 11:36 14,9 C 74 % 1022,5 hPa 0,0 l/m 8,2 km/h (2 Bft) O 92 2 min 0,000 mm 2,7 UV-I 633 W/m 10,3 C 13,9 C 11,3 km/h (2 Bft) 100,00 %
22.09.2016 11:38 15,0 C 74 % 1022,5 hPa 0,0 l/m 9,6 km/h (2 Bft) NO 40 2 min 0,000 mm 2,8 UV-I 648 W/m 10,4 C 13,3 C 14,5 km/h (3 Bft) 100,00 %
22.09.2016 11:40 15,1 C 73 % 1022,5 hPa 0,0 l/m 8,7 km/h (2 Bft) O-SO 103 2 min 0,000 mm 2,8 UV-I 648 W/m 10,3 C 13,8 C 14,5 km/h (3 Bft) 98,00 %
22.09.2016 11:42 15,2 C 75 % 1022,5 hPa 0,0 l/m 8,1 km/h (2 Bft) O-NO 77 2 min 0,000 mm 2,8 UV-I 643 W/m 10,8 C 14,3 C 14,5 km/h (3 Bft) 100,00 %
22.09.2016 11:44 15,2 C 73 % 1022,5 hPa 0,0 l/m 6,7 km/h (2 Bft) NO 39 2 min 0,000 mm 2,8 UV-I 630 W/m 10,4 C 15,0 C 11,3 km/h (2 Bft) 100,00 %
22.09.2016 11:46 15,2 C 74 % 1022,5 hPa 0,0 l/m 11,5 km/h (2 Bft) NO 47 2 min 0,000 mm 2,5 UV-I 677 W/m 10,6 C 12,7 C 16,1 km/h (3 Bft) 97,87 %
22.09.2016 11:48 15,1 C 72 % 1022,5 hPa 0,0 l/m 9,7 km/h (2 Bft) O-NO 63 2 min 0,000 mm 2,6 UV-I 677 W/m 10,1 C 13,4 C 14,5 km/h (3 Bft) 100,00 %
22.09.2016 11:50 15,0 C 74 % 1022,5 hPa 0,0 l/m 9,4 km/h (2 Bft) O-NO 75 2 min 0,000 mm 2,9 UV-I 709 W/m 10,4 C 13,4 C 16,1 km/h (3 Bft) 100,00 %
22.09.2016 11:52 15,0 C 74 % 1022,5 hPa 0,0 l/m 4,5 km/h (1 Bft) O 79 2 min 0,000 mm 2,9 UV-I 695 W/m 10,4 C 15,0 C 6,4 km/h (2 Bft) 97,37 %
22.09.2016 11:54 15,1 C 73 % 1022,5 hPa 0,0 l/m 9,4 km/h (2 Bft) O-SO 113 2 min 0,000 mm 2,9 UV-I 716 W/m 10,3 C 13,5 C 14,5 km/h (3 Bft) 98,15 %
22.09.2016 11:56 14,9 C 72 % 1022,5 hPa 0,0 l/m 5,8 km/h (2 Bft) O-SO 108 2 min 0,000 mm 2,9 UV-I 706 W/m 9,9 C 14,9 C 11,3 km/h (2 Bft) 100,00 %
22.09.2016 11:58 15,0 C 76 % 1022,6 hPa 0,0 l/m 6,7 km/h (2 Bft) NO 54 2 min 0,000 mm 2,6 UV-I 596 W/m 10,8 C 14,8 C 12,9 km/h (3 Bft) 95,74 %
22.09.2016 12:00 15,0 C 73 % 1022,5 hPa 0,0 l/m 10,3 km/h (2 Bft) O-NO 69 0 min 0,305 mm 2,0 UV-I 321 W/m 10,2 C 13,0 C 14,5 km/h (3 Bft) 100,00 %
22.09.2016 12:02 14,9 C 73 % 1022,5 hPa 0,0 l/m 5,7 km/h (1 Bft) O-NO 69 0 min 0,000 mm 2,0 UV-I 243 W/m 10,1 C 14,9 C 8,0 km/h (2 Bft) 100,00 %
22.09.2016 12:04 14,8 C 73 % 1022,5 hPa 0,0 l/m 5,3 km/h (1 Bft) O-NO 78 0 min 0,000 mm 2,0 UV-I 241 W/m 10,0 C 14,8 C 6,4 km/h (2 Bft) 100,00 %
22.09.2016 12:06 14,8 C 74 % 1022,5 hPa 0,0 l/m 6,0 km/h (2 Bft) NO 35 0 min 0,000 mm 1,9 UV-I 229 W/m 10,2 C 14,8 C 11,3 km/h (2 Bft) 100,00 %
22.09.2016 12:08 14,8 C 76 % 1022,5 hPa 0,0 l/m 7,6 km/h (2 Bft) NO 39 0 min 0,000 mm 1,9 UV-I 236 W/m 10,6 C 14,1 C 12,9 km/h (3 Bft) 98,11 %
22.09.2016 12:10 14,7 C 75 % 1022,5 hPa 0,0 l/m 4,6 km/h (1 Bft) O-NO 59 0 min 0,000 mm 1,9 UV-I 244 W/m 10,3 C 14,7 C 8,0 km/h (2 Bft) 95,74 %
22.09.2016 12:12 14,7 C 75 % 1022,5 hPa 0,0 l/m 5,4 km/h (1 Bft) O-NO 68 0 min 0,000 mm 2,1 UV-I 303 W/m 10,3 C 14,7 C 9,7 km/h (2 Bft) 97,56 %
22.09.2016 12:14 14,8 C 73 % 1022,5 hPa 0,0 l/m 3,2 km/h (1 Bft) O-NO 74 2 min 0,000 mm 2,9 UV-I 574 W/m 10,0 C 14,8 C 6,4 km/h (2 Bft) 98,00 %
22.09.2016 12:16 15,0 C 75 % 1022,4 hPa 0,0 l/m 4,5 km/h (1 Bft) SO 128 2 min 0,000 mm 2,4 UV-I 619 W/m 10,6 C 15,0 C 11,3 km/h (2 Bft) 97,92 %
22.09.2016 12:18 15,2 C 75 % 1022,5 hPa 0,0 l/m 5,8 km/h (2 Bft) O-NO 69 0 min 0,000 mm 2,3 UV-I 328 W/m 10,8 C 15,2 C 9,7 km/h (2 Bft) 95,74 %
22.09.2016 12:20 15,3 C 74 % 1022,5 hPa 0,0 l/m 7,7 km/h (2 Bft) O-NO 63 0 min 0,000 mm 2,3 UV-I 335 W/m 10,7 C 14,6 C 14,5 km/h (3 Bft) 97,44 %
22.09.2016 12:22 15,4 C 74 % 1022,5 hPa 0,0 l/m 10,6 km/h (2 Bft) O-NO 62 2 min 0,000 mm 3,0 UV-I 430 W/m 10,8 C 13,3 C 17,7 km/h (3 Bft) 98,31 %
22.09.2016 12:24 15,8 C 75 % 1022,5 hPa 0,0 l/m 8,1 km/h (2 Bft) O-NO 59 2 min 0,000 mm 3,1 UV-I 827 W/m 11,4 C 14,9 C 11,3 km/h (2 Bft) 97,37 %
22.09.2016 12:26 15,9 C 73 % 1022,5 hPa 0,0 l/m 7,1 km/h (2 Bft) NO 34 2 min 0,000 mm 2,4 UV-I 697 W/m 11,1 C 15,5 C 9,7 km/h (2 Bft) 98,00 %
22.09.2016 12:28 15,5 C 70 % 1022,5 hPa 0,0 l/m 3,5 km/h (1 Bft) NO 34 0 min 0,000 mm 2,0 UV-I 209 W/m 10,1 C 15,5 C 6,4 km/h (2 Bft) 94,00 %
22.09.2016 12:30 15,3 C 72 % 1022,5 hPa 0,0 l/m 5,9 km/h (2 Bft) O-NO 70 0 min 0,000 mm 2,0 UV-I 206 W/m 10,3 C 15,3 C 14,5 km/h (3 Bft) 98,00 %
22.09.2016 12:32 15,2 C 72 % 1022,5 hPa 0,0 l/m 9,9 km/h (2 Bft) N-NO 30 0 min 0,000 mm 2,0 UV-I 198 W/m 10,2 C 13,4 C 12,9 km/h (3 Bft) 97,14 %
22.09.2016 12:34 15,1 C 72 % 1022,5 hPa 0,0 l/m 7,0 km/h (2 Bft) NO 36 0 min 0,000 mm 2,1 UV-I 220 W/m 10,1 C 14,8 C 9,7 km/h (2 Bft) 96,36 %
22.09.2016 12:36 15,1 C 75 % 1022,5 hPa 0,0 l/m 6,9 km/h (2 Bft) O 79 0 min 0,000 mm 2,7 UV-I 291 W/m 10,7 C 14,8 C 9,7 km/h (2 Bft) 97,56 %
22.09.2016 12:38 15,4 C 72 % 1022,5 hPa 0,0 l/m 7,1 km/h (2 Bft) O-NO 58 2 min 0,000 mm 3,1 UV-I 741 W/m 10,4 C 15,0 C 11,3 km/h (2 Bft) 98,00 %
22.09.2016 12:40 15,7 C 71 % 1022,5 hPa 0,0 l/m 8,6 km/h (2 Bft) NO 40 2 min 0,000 mm 2,8 UV-I 727 W/m 10,5 C 14,5 C 11,3 km/h (2 Bft) 100,00 %
22.09.2016 12:42 15,7 C 70 % 1022,5 hPa 0,0 l/m 7,3 km/h (2 Bft) O-NO 67 0 min 0,000 mm 2,1 UV-I 238 W/m 10,2 C 15,2 C 9,7 km/h (2 Bft) 100,00 %
22.09.2016 12:44 15,4 C 71 % 1022,6 hPa 0,0 l/m 6,2 km/h (2 Bft) O-NO 59 0 min 0,000 mm 2,2 UV-I 181 W/m 10,2 C 15,4 C 8,0 km/h (2 Bft) 97,87 %
22.09.2016 12:46 15,4 C 72 % 1022,6 hPa 0,0 l/m 4,4 km/h (1 Bft) O 80 0 min 0,000 mm 2,6 UV-I 256 W/m 10,4 C 15,4 C 8,0 km/h (2 Bft) 100,00 %
22.09.2016 12:48 15,4 C 70 % 1022,6 hPa 0,0 l/m 4,4 km/h (1 Bft) O 100 2 min 0,000 mm 3,1 UV-I 552 W/m 10,0 C 15,4 C 9,7 km/h (2 Bft) 100,00 %
22.09.2016 12:50 15,6 C 73 % 1022,5 hPa 0,0 l/m 6,6 km/h (2 Bft) O-NO 65 2 min 0,000 mm 3,1 UV-I 561 W/m 10,8 C 15,5 C 9,7 km/h (2 Bft) 100,00 %
22.09.2016 12:52 15,9 C 70 % 1022,5 hPa 0,0 l/m 6,9 km/h (2 Bft) N-NO 32 2 min 0,000 mm 3,2 UV-I 668 W/m 10,4 C 15,6 C 14,5 km/h (3 Bft) 100,00 %
22.09.2016 12:54 16,2 C 70 % 1022,6 hPa 0,0 l/m 8,4 km/h (2 Bft) O-NO 72 2 min 0,000 mm 3,2 UV-I 722 W/m 10,7 C 15,2 C 14,5 km/h (3 Bft) 100,00 %
22.09.2016 12:56 16,2 C 68 % 1022,5 hPa 0,0 l/m 9,2 km/h (2 Bft) O-NO 65 2 min 0,000 mm 3,1 UV-I 699 W/m 10,3 C 14,8 C 14,5 km/h (3 Bft) 100,00 %
22.09.2016 12:58 16,2 C 72 % 1022,5 hPa 0,0 l/m 5,7 km/h (1 Bft) NO 36 2 min 0,000 mm 3,0 UV-I 692 W/m 11,1 C 16,2 C 12,9 km/h (3 Bft) 100,00 %
22.09.2016 13:00 16,2 C 69 % 1022,5 hPa 0,0 l/m 8,7 km/h (2 Bft) O-SO 113 2 min 0,254 mm 2,8 UV-I 679 W/m 10,5 C 15,0 C 12,9 km/h (3 Bft) 100,00 %
22.09.2016 13:02 16,0 C 67 % 1022,5 hPa 0,0 l/m 5,5 km/h (1 Bft) O-NO 76 2 min 0,000 mm 3,1 UV-I 664 W/m 9,9 C 16,0 C 12,9 km/h (3 Bft) 100,00 %
22.09.2016 13:04 16,1 C 67 % 1022,5 hPa 0,0 l/m 5,5 km/h (1 Bft) O-SO 111 2 min 0,000 mm 3,1 UV-I 667 W/m 10,0 C 16,1 C 9,7 km/h (2 Bft) 100,00 %
22.09.2016 13:06 16,0 C 69 % 1022,5 hPa 0,0 l/m 3,6 km/h (1 Bft) SO 144 2 min 0,000 mm 3,2 UV-I 672 W/m 10,3 C 16,0 C 9,7 km/h (2 Bft) 100,00 %
22.09.2016 13:08 16,1 C 69 % 1022,5 hPa 0,0 l/m 8,6 km/h (2 Bft) O-SO 121 2 min 0,000 mm 3,2 UV-I 666 W/m 10,4 C 15,0 C 14,5 km/h (3 Bft) 100,00 %
22.09.2016 13:10 16,2 C 73 % 1022,5 hPa 0,0 l/m 7,0 km/h (2 Bft) O-SO 108 2 min 0,000 mm 3,2 UV-I 669 W/m 11,4 C 15,9 C 11,3 km/h (2 Bft) 100,00 %
22.09.2016 13:12 16,3 C 70 % 1022,5 hPa 0,0 l/m 6,0 km/h (2 Bft) O-NO 63 2 min 0,000 mm 3,2 UV-I 682 W/m 10,8 C 16,3 C 12,9 km/h (3 Bft) 100,00 %
22.09.2016 13:14 16,3 C 69 % 1022,5 hPa 0,0 l/m 7,2 km/h (2 Bft) O 82 2 min 0,000 mm 3,3 UV-I 681 W/m 10,6 C 15,9 C 12,9 km/h (3 Bft) 100,00 %
22.09.2016 13:16 16,4 C 69 % 1022,4 hPa 0,0 l/m 5,9 km/h (2 Bft) O-NO 57 2 min 0,000 mm 3,3 UV-I 676 W/m 10,7 C 16,4 C 9,7 km/h (2 Bft) 100,00 %
22.09.2016 13:18 16,4 C 66 % 1022,4 hPa 0,0 l/m 6,9 km/h (2 Bft) NO 55 2 min 0,000 mm 3,2 UV-I 669 W/m 10,0 C 16,1 C 11,3 km/h (2 Bft) 100,00 %
22.09.2016 13:20 16,3 C 66 % 1022,4 hPa 0,0 l/m 4,3 km/h (1 Bft) NO 37 2 min 0,000 mm 3,2 UV-I 664 W/m 9,9 C 16,3 C 8,0 km/h (2 Bft) 100,00 %
22.09.2016 13:22 16,3 C 69 % 1022,4 hPa 0,0 l/m 6,2 km/h (2 Bft) NO 46 2 min 0,000 mm 3,2 UV-I 669 W/m 10,6 C 16,3 C 9,7 km/h (2 Bft) 98,21 %
22.09.2016 13:24 16,6 C 68 % 1022,3 hPa 0,0 l/m 3,1 km/h (1 Bft) SO 137 2 min 0,000 mm 3,2 UV-I 674 W/m 10,7 C 16,6 C 6,4 km/h (2 Bft) 98,00 %
22.09.2016 13:26 16,7 C 67 % 1022,4 hPa 0,0 l/m 5,7 km/h (1 Bft) NO 46 2 min 0,000 mm 3,2 UV-I 673 W/m 10,5 C 16,7 C 14,5 km/h (3 Bft) 100,00 %
22.09.2016 13:28 16,6 C 66 % 1022,3 hPa 0,0 l/m 13,1 km/h (3 Bft) O-NO 59 2 min 0,000 mm 3,2 UV-I 668 W/m 10,2 C 13,7 C 17,7 km/h (3 Bft) 96,00 %
22.09.2016 13:30 16,5 C 68 % 1022,4 hPa 0,0 l/m 10,0 km/h (2 Bft) O-SO 103 2 min 0,000 mm 3,2 UV-I 663 W/m 10,6 C 14,8 C 14,5 km/h (3 Bft) 100,00 %
22.09.2016 13:32 16,4 C 70 % 1022,4 hPa 0,0 l/m 2,6 km/h (1 Bft) O 93 2 min 0,000 mm 3,1 UV-I 659 W/m 10,9 C 16,4 C 6,4 km/h (2 Bft) 100,00 %
22.09.2016 13:34 16,5 C 68 % 1022,3 hPa 0,0 l/m 6,2 km/h (2 Bft) O-NO 67 2 min 0,000 mm 3,2 UV-I 662 W/m 10,6 C 16,5 C 9,7 km/h (2 Bft) 100,00 %
22.09.2016 13:36 16,6 C 67 % 1022,3 hPa 0,0 l/m 5,1 km/h (1 Bft) O-NO 76 2 min 0,000 mm 3,2 UV-I 667 W/m 10,4 C 16,6 C 11,3 km/h (2 Bft) 100,00 %
22.09.2016 13:38 16,7 C 67 % 1022,2 hPa 0,0 l/m 8,4 km/h (2 Bft) NO 55 2 min 0,000 mm 3,2 UV-I 668 W/m 10,5 C 15,7 C 14,5 km/h (3 Bft) 100,00 %
22.09.2016 13:40 16,7 C 65 % 1022,3 hPa 0,0 l/m 5,8 km/h (2 Bft) N 355 2 min 0,000 mm 3,2 UV-I 671 W/m 10,1 C 16,7 C 9,7 km/h (2 Bft) 100,00 %
22.09.2016 13:42 16,7 C 64 % 1022,2 hPa 0,0 l/m 2,3 km/h (1 Bft) NW 322 2 min 0,000 mm 3,1 UV-I 669 W/m 9,9 C 16,7 C 6,4 km/h (2 Bft) 97,87 %
22.09.2016 13:44 16,6 C 67 % 1022,2 hPa 0,0 l/m 2,7 km/h (1 Bft) O-NO 69 2 min 0,000 mm 3,2 UV-I 666 W/m 10,4 C 16,6 C 14,5 km/h (3 Bft) 100,00 %
22.09.2016 13:46 16,8 C 66 % 1022,2 hPa 0,0 l/m 5,8 km/h (2 Bft) O-NO 60 2 min 0,000 mm 3,0 UV-I 670 W/m 10,4 C 16,8 C 11,3 km/h (2 Bft) 100,00 %
22.09.2016 13:48 16,8 C 62 % 1022,2 hPa 0,0 l/m 3,6 km/h (1 Bft) O-NO 69 2 min 0,000 mm 3,1 UV-I 670 W/m 9,5 C 16,8 C 9,7 km/h (2 Bft) 100,00 %
22.09.2016 13:50 16,7 C 66 % 1022,1 hPa 0,0 l/m 6,9 km/h (2 Bft) NO 47 2 min 0,000 mm 3,1 UV-I 671 W/m 10,3 C 16,4 C 11,3 km/h (2 Bft) 100,00 %
22.09.2016 13:52 16,8 C 62 % 1022,0 hPa 0,0 l/m 6,2 km/h (2 Bft) N-NO 13 2 min 0,000 mm 3,1 UV-I 667 W/m 9,5 C 16,8 C 16,1 km/h (3 Bft) 100,00 %
22.09.2016 13:54 16,8 C 68 % 1022,0 hPa 0,0 l/m 9,4 km/h (2 Bft) O-NO 67 2 min 0,000 mm 3,1 UV-I 655 W/m 10,9 C 15,4 C 19,3 km/h (3 Bft) 100,00 %
22.09.2016 13:56 16,9 C 65 % 1022,0 hPa 0,0 l/m 9,1 km/h (2 Bft) NO 50 2 min 0,000 mm 3,0 UV-I 625 W/m 10,3 C 15,6 C 12,9 km/h (3 Bft) 98,00 %
22.09.2016 13:58 17,1 C 66 % 1022,0 hPa 0,0 l/m 7,9 km/h (2 Bft) N 9 2 min 0,000 mm 3,0 UV-I 642 W/m 10,7 C 16,4 C 12,9 km/h (3 Bft) 97,87 %
22.09.2016 14:00 17,1 C 66 % 1022,0 hPa 0,0 l/m 5,6 km/h (1 Bft) N-NO 31 2 min 0,381 mm 3,0 UV-I 651 W/m 10,7 C 17,1 C 12,9 km/h (3 Bft) 96,23 %
22.09.2016 14:02 17,3 C 69 % 1022,0 hPa 0,0 l/m 7,4 km/h (2 Bft) N 9 2 min 0,000 mm 3,0 UV-I 649 W/m 11,6 C 16,8 C 14,5 km/h (3 Bft) 97,56 %
22.09.2016 14:04 17,2 C 66 % 1021,9 hPa 0,0 l/m 5,8 km/h (2 Bft) N-NO 22 2 min 0,000 mm 3,0 UV-I 651 W/m 10,8 C 17,2 C 9,7 km/h (2 Bft) 96,23 %
22.09.2016 14:06 17,2 C 64 % 1022,0 hPa 0,0 l/m 2,7 km/h (1 Bft) O 83 2 min 0,000 mm 3,0 UV-I 648 W/m 10,3 C 17,2 C 4,8 km/h (1 Bft) 97,37 %
22.09.2016 14:08 17,0 C 64 % 1021,9 hPa 0,0 l/m 4,3 km/h (1 Bft) O 90 2 min 0,000 mm 3,0 UV-I 645 W/m 10,1 C 17,0 C 9,7 km/h (2 Bft) 98,11 %
22.09.2016 14:10 17,0 C 64 % 1021,9 hPa 0,0 l/m 8,4 km/h (2 Bft) O-NO 73 2 min 0,000 mm 3,0 UV-I 645 W/m 10,1 C 16,0 C 14,5 km/h (3 Bft) 95,74 %
22.09.2016 14:12 17,0 C 62 % 1021,9 hPa 0,0 l/m 6,5 km/h (2 Bft) NO 49 2 min 0,000 mm 2,9 UV-I 641 W/m 9,7 C 17,0 C 12,9 km/h (3 Bft) 98,00 %
22.09.2016 14:14 17,0 C 61 % 1021,9 hPa 0,0 l/m 6,4 km/h (2 Bft) NO 42 2 min 0,000 mm 2,9 UV-I 639 W/m 9,4 C 17,0 C 12,9 km/h (3 Bft) 97,62 %
22.09.2016 14:16 17,0 C 63 % 1021,9 hPa 0,0 l/m 6,3 km/h (2 Bft) O-NO 73 2 min 0,000 mm 2,8 UV-I 631 W/m 9,9 C 17,0 C 9,7 km/h (2 Bft) 98,00 %
22.09.2016 14:18 17,1 C 64 % 1021,8 hPa 0,0 l/m 5,3 km/h (1 Bft) NO 51 2 min 0,000 mm 2,8 UV-I 625 W/m 10,2 C 17,1 C 8,0 km/h (2 Bft) 97,37 %
22.09.2016 14:20 17,3 C 62 % 1021,9 hPa 0,0 l/m 4,1 km/h (1 Bft) O-NO 71 2 min 0,000 mm 2,7 UV-I 615 W/m 9,9 C 17,3 C 8,0 km/h (2 Bft) 96,23 %
22.09.2016 14:22 17,4 C 63 % 1021,8 hPa 0,0 l/m 5,8 km/h (2 Bft) NO 44 2 min 0,000 mm 2,7 UV-I 608 W/m 10,3 C 17,4 C 9,7 km/h (2 Bft) 100,00 %
22.09.2016 14:24 17,3 C 62 % 1021,8 hPa 0,0 l/m 5,3 km/h (1 Bft) N-NO 32 2 min 0,000 mm 2,7 UV-I 610 W/m 9,9 C 17,3 C 8,0 km/h (2 Bft) 98,00 %
22.09.2016 14:26 17,1 C 62 % 1021,8 hPa 0,0 l/m 1,9 km/h (1 Bft) N-NO 27 2 min 0,000 mm 2,7 UV-I 620 W/m 9,8 C 17,1 C 6,4 km/h (2 Bft) 100,00 %
22.09.2016 14:28 17,1 C 63 % 1021,8 hPa 0,0 l/m 1,0 km/h (0 Bft) NO 38 2 min 0,000 mm 2,7 UV-I 621 W/m 10,0 C 17,1 C 8,0 km/h (2 Bft) 95,74 %
22.09.2016 14:30 17,2 C 60 % 1021,8 hPa 0,0 l/m 5,9 km/h (2 Bft) O 81 2 min 0,000 mm 2,7 UV-I 618 W/m 9,4 C 17,2 C 9,7 km/h (2 Bft) 100,00 %
22.09.2016 14:32 17,1 C 59 % 1021,8 hPa 0,0 l/m 1,6 km/h (1 Bft) O 81 2 min 0,000 mm 2,7 UV-I 616 W/m 9,0 C 17,1 C 3,2 km/h (1 Bft) 100,00 %
22.09.2016 14:34 17,1 C 62 % 1021,7 hPa 0,0 l/m 1,4 km/h (1 Bft) W 261 2 min 0,000 mm 2,7 UV-I 612 W/m 9,8 C 17,1 C 3,2 km/h (1 Bft) 100,00 %
22.09.2016 14:36 17,2 C 60 % 1021,7 hPa 0,0 l/m 2,3 km/h (1 Bft) W 277 2 min 0,000 mm 2,6 UV-I 611 W/m 9,4 C 17,2 C 3,2 km/h (1 Bft) 100,00 %
22.09.2016 14:38 17,2 C 60 % 1021,7 hPa 0,0 l/m 0,9 km/h (0 Bft) W 274 2 min 0,000 mm 2,6 UV-I 604 W/m 9,4 C 17,2 C 3,2 km/h (1 Bft) 100,00 %
22.09.2016 14:40 17,3 C 61 % 1021,7 hPa 0,0 l/m 5,3 km/h (1 Bft) O-NO 67 2 min 0,000 mm 2,5 UV-I 579 W/m 9,7 C 17,3 C 14,5 km/h (3 Bft) 97,87 %
22.09.2016 14:42 17,4 C 62 % 1021,7 hPa 0,0 l/m 7,5 km/h (2 Bft) O 92 2 min 0,000 mm 2,5 UV-I 584 W/m 10,0 C 16,9 C 17,7 km/h (3 Bft) 100,00 %
22.09.2016 14:44 17,3 C 61 % 1021,6 hPa 0,0 l/m 5,8 km/h (2 Bft) O-SO 113 2 min 0,000 mm 2,5 UV-I 586 W/m 9,7 C 17,3 C 12,9 km/h (3 Bft) 97,87 %
22.09.2016 14:46 17,2 C 60 % 1021,6 hPa 0,0 l/m 1,1 km/h (1 Bft) O-SO 113 2 min 0,000 mm 2,5 UV-I 593 W/m 9,4 C 17,2 C 3,2 km/h (1 Bft) 97,37 %
22.09.2016 14:48 17,3 C 60 % 1021,6 hPa 0,0 l/m 3,7 km/h (1 Bft) S-SW 211 2 min 0,000 mm 2,5 UV-I 596 W/m 9,5 C 17,3 C 6,4 km/h (2 Bft) 100,00 %
22.09.2016 14:50 17,2 C 61 % 1021,5 hPa 0,0 l/m 1,2 km/h (1 Bft) S-SW 211 2 min 0,000 mm 2,5 UV-I 595 W/m 9,6 C 17,2 C 3,2 km/h (1 Bft) 96,00 %
22.09.2016 14:52 17,3 C 61 % 1021,6 hPa 0,0 l/m 6,1 km/h (2 Bft) O 94 2 min 0,000 mm 2,5 UV-I 592 W/m 9,7 C 17,3 C 11,3 km/h (2 Bft) 100,00 %
22.09.2016 14:54 17,4 C 60 % 1021,6 hPa 0,0 l/m 5,9 km/h (2 Bft) NO 55 2 min 0,000 mm 2,4 UV-I 587 W/m 9,6 C 17,4 C 11,3 km/h (2 Bft) 97,87 %
22.09.2016 14:56 17,5 C 62 % 1021,6 hPa 0,0 l/m 6,1 km/h (2 Bft) O-NO 74 2 min 0,000 mm 2,4 UV-I 583 W/m 10,1 C 17,5 C 9,7 km/h (2 Bft) 97,92 %
22.09.2016 14:58 17,7 C 62 % 1021,5 hPa 0,0 l/m 6,9 km/h (2 Bft) O-SO 115 2 min 0,000 mm 2,3 UV-I 571 W/m 10,3 C 17,5 C 11,3 km/h (2 Bft) 100,00 %
22.09.2016 15:00 17,7 C 60 % 1021,5 hPa 0,0 l/m 5,3 km/h (1 Bft) S 172 2 min 0,356 mm 2,3 UV-I 573 W/m 9,8 C 17,7 C 12,9 km/h (3 Bft) 100,00 %
22.09.2016 15:02 17,7 C 60 % 1021,5 hPa 0,0 l/m 4,9 km/h (1 Bft) S 178 2 min 0,000 mm 2,3 UV-I 570 W/m 9,8 C 17,7 C 8,0 km/h (2 Bft) 100,00 %
22.09.2016 15:04 17,8 C 63 % 1021,6 hPa 0,0 l/m 3,8 km/h (1 Bft) S-SW 197 2 min 0,000 mm 2,3 UV-I 567 W/m 10,7 C 17,8 C 8,0 km/h (2 Bft) 100,00 %
22.09.2016 15:06 17,8 C 61 % 1021,6 hPa 0,0 l/m 1,2 km/h (1 Bft) SO 134 2 min 0,000 mm 2,2 UV-I 567 W/m 10,2 C 17,8 C 4,8 km/h (1 Bft) 100,00 %
22.09.2016 15:08 17,8 C 61 % 1021,5 hPa 0,0 l/m 2,3 km/h (1 Bft) N-NO 33 2 min 0,000 mm 2,2 UV-I 566 W/m 10,2 C 17,8 C 9,7 km/h (2 Bft) 100,00 %
22.09.2016 15:10 17,7 C 63 % 1021,5 hPa 0,0 l/m 2,6 km/h (1 Bft) N-NO 28 2 min 0,000 mm 2,2 UV-I 558 W/m 10,6 C 17,7 C 6,4 km/h (2 Bft) 100,00 %
22.09.2016 15:12 17,7 C 59 % 1021,4 hPa 0,0 l/m 1,4 km/h (1 Bft) N-NO 24 2 min 0,000 mm 2,2 UV-I 554 W/m 9,6 C 17,7 C 3,2 km/h (1 Bft) 100,00 %
22.09.2016 15:14 17,6 C 57 % 1021,5 hPa 0,0 l/m 5,7 km/h (1 Bft) O-NO 69 2 min 0,000 mm 2,1 UV-I 552 W/m 9,0 C 17,6 C 9,7 km/h (2 Bft) 97,87 %
22.09.2016 15:16 17,7 C 59 % 1021,5 hPa 0,0 l/m 2,4 km/h (1 Bft) O-NO 69 2 min 0,000 mm 2,1 UV-I 543 W/m 9,6 C 17,7 C 4,8 km/h (1 Bft) 100,00 %
22.09.2016 15:18 17,8 C 60 % 1021,5 hPa 0,0 l/m 5,9 km/h (2 Bft) N-NO 22 2 min 0,000 mm 2,1 UV-I 540 W/m 9,9 C 17,8 C 8,0 km/h (2 Bft) 100,00 %
22.09.2016 15:20 17,8 C 57 % 1021,5 hPa 0,0 l/m 3,8 km/h (1 Bft) O-NO 64 2 min 0,000 mm 2,0 UV-I 499 W/m 9,2 C 17,8 C 6,4 km/h (2 Bft) 98,00 %
22.09.2016 15:22 17,9 C 56 % 1021,5 hPa 0,0 l/m 4,7 km/h (1 Bft) O 95 2 min 0,000 mm 2,0 UV-I 535 W/m 9,0 C 17,9 C 6,4 km/h (2 Bft) 100,00 %
22.09.2016 15:24 17,9 C 56 % 1021,4 hPa 0,0 l/m 6,9 km/h (2 Bft) O 98 2 min 0,000 mm 2,0 UV-I 533 W/m 9,0 C 17,7 C 11,3 km/h (2 Bft) 97,87 %
22.09.2016 15:26 17,8 C 58 % 1021,5 hPa 0,0 l/m 2,9 km/h (1 Bft) O-SO 119 2 min 0,000 mm 1,9 UV-I 531 W/m 9,4 C 17,8 C 9,7 km/h (2 Bft) 100,00 %
22.09.2016 15:28 17,9 C 59 % 1021,5 hPa 0,0 l/m 4,4 km/h (1 Bft) N 11 2 min 0,000 mm 1,9 UV-I 526 W/m 9,8 C 17,9 C 9,7 km/h (2 Bft) 97,87 %
22.09.2016 15:30 18,1 C 60 % 1021,5 hPa 0,0 l/m 4,4 km/h (1 Bft) NO 47 2 min 0,000 mm 1,9 UV-I 525 W/m 10,2 C 18,1 C 8,0 km/h (2 Bft) 100,00 %
22.09.2016 15:32 18,2 C 56 % 1021,5 hPa 0,0 l/m 8,0 km/h (2 Bft) NO 39 2 min 0,000 mm 1,9 UV-I 523 W/m 9,3 C 17,5 C 11,3 km/h (2 Bft) 100,00 %
22.09.2016 15:34 18,1 C 55 % 1021,4 hPa 0,0 l/m 5,7 km/h (1 Bft) NO 55 2 min 0,000 mm 1,8 UV-I 521 W/m 8,9 C 18,1 C 8,0 km/h (2 Bft) 100,00 %
22.09.2016 15:36 18,0 C 55 % 1021,5 hPa 0,0 l/m 8,6 km/h (2 Bft) NO 36 2 min 0,000 mm 1,8 UV-I 515 W/m 8,8 C 17,0 C 12,9 km/h (3 Bft) 100,00 %
22.09.2016 15:38 17,9 C 57 % 1021,4 hPa 0,0 l/m 3,1 km/h (1 Bft) N-NO 27 2 min 0,000 mm 1,7 UV-I 510 W/m 9,3 C 17,9 C 6,4 km/h (2 Bft) 98,00 %
22.09.2016 15:40 17,8 C 56 % 1021,4 hPa 0,0 l/m 0,5 km/h (0 Bft) N-NO 27 2 min 0,000 mm 1,7 UV-I 505 W/m 8,9 C 17,8 C 1,6 km/h (1 Bft) 100,00 %
22.09.2016 15:42 17,7 C 58 % 1021,4 hPa 0,0 l/m 1,3 km/h (1 Bft) NW 325 2 min 0,000 mm 1,7 UV-I 493 W/m 9,3 C 17,7 C 3,2 km/h (1 Bft) 98,00 %
22.09.2016 15:44 17,7 C 59 % 1021,4 hPa 0,0 l/m 1,5 km/h (1 Bft) N 350 2 min 0,000 mm 1,7 UV-I 491 W/m 9,6 C 17,7 C 4,8 km/h (1 Bft) 100,00 %
22.09.2016 15:46 17,8 C 59 % 1021,4 hPa 0,0 l/m 3,0 km/h (1 Bft) N 11 2 min 0,000 mm 1,6 UV-I 486 W/m 9,7 C 17,8 C 4,8 km/h (1 Bft) 98,11 %
22.09.2016 15:48 17,8 C 55 % 1021,4 hPa 0,0 l/m 2,5 km/h (1 Bft) N-NW 336 2 min 0,000 mm 1,6 UV-I 475 W/m 8,6 C 17,8 C 4,8 km/h (1 Bft) 94,74 %
22.09.2016 15:50 17,8 C 57 % 1021,3 hPa 0,0 l/m 2,9 km/h (1 Bft) NO 55 2 min 0,000 mm 1,5 UV-I 461 W/m 9,2 C 17,8 C 11,3 km/h (2 Bft) 98,11 %
22.09.2016 15:52 17,9 C 57 % 1021,3 hPa 0,0 l/m 9,4 km/h (2 Bft) O-SO 106 2 min 0,000 mm 1,5 UV-I 467 W/m 9,3 C 16,6 C 12,9 km/h (3 Bft) 97,56 %
22.09.2016 15:54 17,9 C 56 % 1021,3 hPa 0,0 l/m 4,5 km/h (1 Bft) O-SO 122 2 min 0,000 mm 1,5 UV-I 455 W/m 9,0 C 17,9 C 8,0 km/h (2 Bft) 93,62 %
22.09.2016 15:56 17,9 C 55 % 1021,3 hPa 0,0 l/m 6,4 km/h (2 Bft) O 94 2 min 0,000 mm 1,4 UV-I 445 W/m 8,7 C 17,9 C 11,3 km/h (2 Bft) 98,00 %
22.09.2016 15:58 18,1 C 53 % 1021,2 hPa 0,0 l/m 5,3 km/h (1 Bft) O-SO 107 2 min 0,000 mm 1,4 UV-I 412 W/m 8,4 C 18,1 C 9,7 km/h (2 Bft) 98,11 %
22.09.2016 16:00 18,1 C 53 % 1021,2 hPa 0,0 l/m 1,1 km/h (1 Bft) O-SO 105 2 min 0,304 mm 1,4 UV-I 424 W/m 8,4 C 18,1 C 4,8 km/h (1 Bft) 97,14 %
22.09.2016 16:02 18,0 C 55 % 1021,3 hPa 0,0 l/m 5,4 km/h (1 Bft) O-NO 68 2 min 0,000 mm 1,4 UV-I 432 W/m 8,8 C 18,0 C 12,9 km/h (3 Bft) 96,61 %
22.09.2016 16:04 17,9 C 52 % 1021,2 hPa 0,0 l/m 6,0 km/h (2 Bft) O-NO 74 2 min 0,000 mm 1,3 UV-I 454 W/m 7,9 C 17,9 C 11,3 km/h (2 Bft) 100,00 %
22.09.2016 16:06 17,9 C 54 % 1021,2 hPa 0,0 l/m 5,6 km/h (1 Bft) O-NO 68 2 min 0,000 mm 1,3 UV-I 448 W/m 8,5 C 17,9 C 8,0 km/h (2 Bft) 96,00 %
22.09.2016 16:08 18,1 C 56 % 1021,2 hPa 0,0 l/m 5,1 km/h (1 Bft) NO 55 2 min 0,000 mm 1,3 UV-I 435 W/m 9,2 C 18,1 C 9,7 km/h (2 Bft) 98,00 %
22.09.2016 16:10 18,1 C 54 % 1021,2 hPa 0,0 l/m 4,5 km/h (1 Bft) NO 51 2 min 0,000 mm 1,3 UV-I 376 W/m 8,6 C 18,1 C 8,0 km/h (2 Bft) 98,00 %
22.09.2016 16:12 18,1 C 55 % 1021,2 hPa 0,0 l/m 4,0 km/h (1 Bft) O-NO 59 2 min 0,000 mm 1,2 UV-I 302 W/m 8,9 C 18,1 C 8,0 km/h (2 Bft) 97,44 %
22.09.2016 16:14 18,2 C 54 % 1021,2 hPa 0,0 l/m 9,2 km/h (2 Bft) O-NO 74 2 min 0,000 mm 1,2 UV-I 395 W/m 8,7 C 17,0 C 14,5 km/h (3 Bft) 98,11 %
22.09.2016 16:16 18,2 C 53 % 1021,1 hPa 0,0 l/m 8,9 km/h (2 Bft) O 81 2 min 0,000 mm 1,2 UV-I 403 W/m 8,5 C 17,1 C 12,9 km/h (3 Bft) 97,56 %
22.09.2016 16:18 18,0 C 53 % 1021,1 hPa 0,0 l/m 4,9 km/h (1 Bft) O-NO 78 2 min 0,000 mm 1,1 UV-I 400 W/m 8,3 C 18,0 C 8,0 km/h (2 Bft) 98,11 %
22.09.2016 16:20 17,9 C 53 % 1021,1 hPa 0,0 l/m 4,1 km/h (1 Bft) O 84 2 min 0,000 mm 1,1 UV-I 396 W/m 8,2 C 17,9 C 6,4 km/h (2 Bft) 100,00 %
22.09.2016 16:22 17,9 C 54 % 1021,1 hPa 0,0 l/m 4,3 km/h (1 Bft) NO 51 2 min 0,000 mm 1,1 UV-I 386 W/m 8,5 C 17,9 C 9,7 km/h (2 Bft) 100,00 %
22.09.2016 16:24 18,1 C 54 % 1021,1 hPa 0,0 l/m 8,2 km/h (2 Bft) NO 46 2 min 0,000 mm 1,0 UV-I 366 W/m 8,6 C 17,3 C 12,9 km/h (3 Bft) 100,00 %
22.09.2016 16:26 18,1 C 55 % 1021,1 hPa 0,0 l/m 5,1 km/h (1 Bft) O 92 2 min 0,000 mm 1,0 UV-I 373 W/m 8,9 C 18,1 C 9,7 km/h (2 Bft) 100,00 %
22.09.2016 16:28 18,2 C 53 % 1021,1 hPa 0,0 l/m 4,7 km/h (1 Bft) O 88 2 min 0,000 mm 1,0 UV-I 380 W/m 8,5 C 18,2 C 6,4 km/h (2 Bft) 100,00 %
22.09.2016 16:30 18,2 C 52 % 1021,1 hPa 0,0 l/m 4,9 km/h (1 Bft) NO 52 2 min 0,000 mm 1,0 UV-I 374 W/m 8,2 C 18,2 C 9,7 km/h (2 Bft) 100,00 %
22.09.2016 16:32 18,2 C 52 % 1021,1 hPa 0,0 l/m 7,2 km/h (2 Bft) O 87 2 min 0,000 mm 0,9 UV-I 368 W/m 8,2 C 17,8 C 12,9 km/h (3 Bft) 97,73 %
22.09.2016 16:34 18,1 C 53 % 1021,0 hPa 0,0 l/m 7,8 km/h (2 Bft) O-NO 77 2 min 0,000 mm 0,9 UV-I 359 W/m 8,4 C 17,4 C 12,9 km/h (3 Bft) 100,00 %
22.09.2016 16:36 18,0 C 52 % 1021,0 hPa 0,0 l/m 4,2 km/h (1 Bft) O-NO 76 2 min 0,000 mm 0,9 UV-I 348 W/m 8,0 C 18,0 C 8,0 km/h (2 Bft) 100,00 %
22.09.2016 16:38 18,0 C 52 % 1021,0 hPa 0,0 l/m 5,0 km/h (1 Bft) O-NO 64 2 min 0,000 mm 0,9 UV-I 343 W/m 8,0 C 18,0 C 11,3 km/h (2 Bft) 100,00 %
22.09.2016 16:40 18,1 C 52 % 1021,0 hPa 0,0 l/m 5,5 km/h (1 Bft) O-NO 67 2 min 0,000 mm 0,8 UV-I 321 W/m 8,1 C 18,1 C 6,4 km/h (2 Bft) 100,00 %
22.09.2016 16:42 18,0 C 51 % 1021,0 hPa 0,0 l/m 4,0 km/h (1 Bft) NO 56 2 min 0,000 mm 0,8 UV-I 320 W/m 7,7 C 18,0 C 6,4 km/h (2 Bft) 97,87 %
22.09.2016 16:44 18,0 C 53 % 1020,9 hPa 0,0 l/m 4,5 km/h (1 Bft) NO 44 2 min 0,000 mm 0,8 UV-I 326 W/m 8,3 C 18,0 C 6,4 km/h (2 Bft) 100,00 %
22.09.2016 16:46 17,9 C 54 % 1020,9 hPa 0,0 l/m 4,5 km/h (1 Bft) O-NO 67 2 min 0,000 mm 0,8 UV-I 335 W/m 8,5 C 17,9 C 8,0 km/h (2 Bft) 100,00 %
22.09.2016 16:48 18,1 C 51 % 1020,9 hPa 0,0 l/m 4,6 km/h (1 Bft) O-SO 110 2 min 0,000 mm 0,8 UV-I 333 W/m 7,8 C 18,1 C 9,7 km/h (2 Bft) 100,00 %
22.09.2016 16:50 18,1 C 52 % 1020,8 hPa 0,0 l/m 9,7 km/h (2 Bft) O-NO 65 2 min 0,000 mm 0,7 UV-I 332 W/m 8,1 C 16,7 C 14,5 km/h (3 Bft) 100,00 %
22.09.2016 16:52 18,0 C 51 % 1020,8 hPa 0,0 l/m 7,7 km/h (2 Bft) O-NO 61 2 min 0,000 mm 0,7 UV-I 325 W/m 7,7 C 17,4 C 12,9 km/h (3 Bft) 100,00 %
22.09.2016 16:54 17,9 C 51 % 1020,9 hPa 0,0 l/m 7,5 km/h (2 Bft) O-NO 71 2 min 0,000 mm 0,7 UV-I 320 W/m 7,6 C 17,4 C 11,3 km/h (2 Bft) 100,00 %
22.09.2016 16:56 17,9 C 52 % 1020,8 hPa 0,0 l/m 6,6 km/h (2 Bft) O-NO 74 2 min 0,000 mm 0,7 UV-I 313 W/m 7,9 C 17,8 C 12,9 km/h (3 Bft) 100,00 %
22.09.2016 16:58 17,9 C 51 % 1020,8 hPa 0,0 l/m 7,5 km/h (2 Bft) O-NO 77 2 min 0,000 mm 0,6 UV-I 306 W/m 7,6 C 17,4 C 11,3 km/h (2 Bft) 98,31 %
22.09.2016 17:00 17,9 C 52 % 1020,8 hPa 0,0 l/m 5,6 km/h (1 Bft) O-NO 62 2 min 0,254 mm 0,6 UV-I 298 W/m 7,9 C 17,9 C 8,0 km/h (2 Bft) 97,14 %
22.09.2016 17:02 17,9 C 54 % 1020,8 hPa 0,0 l/m 8,5 km/h (2 Bft) NO 42 2 min 0,000 mm 0,6 UV-I 290 W/m 8,5 C 16,9 C 11,3 km/h (2 Bft) 100,00 %
22.09.2016 17:04 17,8 C 53 % 1020,8 hPa 0,0 l/m 6,1 km/h (2 Bft) O-NO 67 2 min 0,000 mm 0,6 UV-I 284 W/m 8,1 C 17,8 C 8,0 km/h (2 Bft) 100,00 %
22.09.2016 17:06 17,9 C 53 % 1020,8 hPa 0,0 l/m 8,2 km/h (2 Bft) NO 38 2 min 0,000 mm 0,6 UV-I 279 W/m 8,2 C 17,1 C 11,3 km/h (2 Bft) 100,00 %
22.09.2016 17:08 17,8 C 54 % 1020,8 hPa 0,0 l/m 7,0 km/h (2 Bft) NO 42 2 min 0,000 mm 0,5 UV-I 273 W/m 8,4 C 17,5 C 9,7 km/h (2 Bft) 100,00 %
22.09.2016 17:10 17,9 C 52 % 1020,8 hPa 0,0 l/m 6,1 km/h (2 Bft) O-NO 61 2 min 0,000 mm 0,5 UV-I 267 W/m 7,9 C 17,9 C 12,9 km/h (3 Bft) 100,00 %
22.09.2016 17:12 17,9 C 51 % 1020,7 hPa 0,0 l/m 9,5 km/h (2 Bft) O-NO 76 2 min 0,000 mm 0,5 UV-I 255 W/m 7,6 C 16,5 C 17,7 km/h (3 Bft) 100,00 %
22.09.2016 17:14 17,8 C 51 % 1020,7 hPa 0,0 l/m 8,5 km/h (2 Bft) NO 41 2 min 0,000 mm 0,5 UV-I 257 W/m 7,5 C 16,8 C 12,9 km/h (3 Bft) 100,00 %
22.09.2016 17:16 17,8 C 50 % 1020,8 hPa 0,0 l/m 6,4 km/h (2 Bft) NO 40 2 min 0,000 mm 0,4 UV-I 255 W/m 7,2 C 17,8 C 9,7 km/h (2 Bft) 100,00 %
22.09.2016 17:18 17,8 C 52 % 1020,8 hPa 0,0 l/m 6,7 km/h (2 Bft) NO 44 2 min 0,000 mm 0,0 UV-I 249 W/m 7,8 C 17,7 C 9,7 km/h (2 Bft) 100,00 %
22.09.2016 17:20 17,8 C 55 % 1020,8 hPa 0,0 l/m 5,5 km/h (1 Bft) O 79 2 min 0,000 mm 0,0 UV-I 237 W/m 8,6 C 17,8 C 9,7 km/h (2 Bft) 100,00 %
22.09.2016 17:22 17,8 C 53 % 1020,8 hPa 0,0 l/m 6,2 km/h (2 Bft) O-NO 73 2 min 0,000 mm 0,0 UV-I 235 W/m 8,1 C 17,8 C 9,7 km/h (2 Bft) 100,00 %
22.09.2016 17:24 17,7 C 52 % 1020,7 hPa 0,0 l/m 8,6 km/h (2 Bft) O-NO 74 2 min 0,000 mm 0,0 UV-I 231 W/m 7,7 C 16,7 C 12,9 km/h (3 Bft) 100,00 %
22.09.2016 17:26 17,6 C 53 % 1020,8 hPa 0,0 l/m 8,4 km/h (2 Bft) SO 144 2 min 0,000 mm 0,0 UV-I 226 W/m 7,9 C 16,7 C 14,5 km/h (3 Bft) 100,00 %
22.09.2016 17:28 17,6 C 55 % 1020,7 hPa 0,0 l/m 6,4 km/h (2 Bft) O 81 2 min 0,000 mm 0,0 UV-I 220 W/m 8,5 C 17,6 C 9,7 km/h (2 Bft) 100,00 %
22.09.2016 17:30 17,6 C 54 % 1020,8 hPa 0,0 l/m 5,3 km/h (1 Bft) O-NO 75 2 min 0,000 mm 0,0 UV-I 213 W/m 8,2 C 17,6 C 8,0 km/h (2 Bft) 100,00 %
22.09.2016 17:32 17,6 C 53 % 1020,7 hPa 0,0 l/m 6,1 km/h (2 Bft) O 90 2 min 0,000 mm 0,0 UV-I 202 W/m 7,9 C 17,6 C 8,0 km/h (2 Bft) 100,00 %
22.09.2016 17:34 17,6 C 55 % 1020,7 hPa 0,0 l/m 6,2 km/h (2 Bft) O-NO 72 2 min 0,000 mm 0,0 UV-I 197 W/m 8,5 C 17,6 C 8,0 km/h (2 Bft) 98,21 %
22.09.2016 17:36 17,6 C 56 % 1020,7 hPa 0,0 l/m 5,9 km/h (2 Bft) O 92 2 min 0,000 mm 0,0 UV-I 195 W/m 8,7 C 17,6 C 12,9 km/h (3 Bft) 100,00 %
22.09.2016 17:38 17,6 C 54 % 1020,7 hPa 0,0 l/m 6,0 km/h (2 Bft) O-NO 78 2 min 0,000 mm 0,0 UV-I 190 W/m 8,2 C 17,6 C 8,0 km/h (2 Bft) 100,00 %
22.09.2016 17:40 17,5 C 56 % 1020,7 hPa 0,0 l/m 4,6 km/h (1 Bft) O 79 2 min 0,000 mm 0,0 UV-I 183 W/m 8,6 C 17,5 C 8,0 km/h (2 Bft) 97,87 %
22.09.2016 17:42 17,4 C 53 % 1020,7 hPa 0,0 l/m 8,9 km/h (2 Bft) NO 40 2 min 0,000 mm 0,0 UV-I 178 W/m 7,7 C 16,2 C 14,5 km/h (3 Bft) 98,00 %
22.09.2016 17:44 17,4 C 54 % 1020,7 hPa 0,0 l/m 8,0 km/h (2 Bft) O-NO 70 2 min 0,000 mm 0,0 UV-I 172 W/m 8,0 C 16,6 C 11,3 km/h (2 Bft) 97,56 %
22.09.2016 17:46 17,4 C 55 % 1020,7 hPa 0,0 l/m 8,7 km/h (2 Bft) O-NO 61 2 min 0,000 mm 0,0 UV-I 161 W/m 8,3 C 16,3 C 12,9 km/h (3 Bft) 94,34 %
22.09.2016 17:48 17,3 C 55 % 1020,7 hPa 0,0 l/m 7,8 km/h (2 Bft) O-NO 74 2 min 0,000 mm 0,0 UV-I 162 W/m 8,2 C 16,6 C 12,9 km/h (3 Bft) 97,73 %
22.09.2016 17:50 17,3 C 55 % 1020,7 hPa 0,0 l/m 5,2 km/h (1 Bft) NO 52 2 min 0,000 mm 0,0 UV-I 158 W/m 8,2 C 17,3 C 8,0 km/h (2 Bft) 96,00 %
22.09.2016 17:52 17,2 C 56 % 1020,8 hPa 0,0 l/m 5,9 km/h (2 Bft) NO 51 2 min 0,000 mm 0,0 UV-I 153 W/m 8,3 C 17,2 C 11,3 km/h (2 Bft) 94,74 %
22.09.2016 17:54 17,2 C 54 % 1020,7 hPa 0,0 l/m 8,2 km/h (2 Bft) O-NO 68 2 min 0,000 mm 0,0 UV-I 149 W/m 7,8 C 16,3 C 14,5 km/h (3 Bft) 97,87 %
22.09.2016 17:56 17,1 C 57 % 1020,7 hPa 0,0 l/m 6,5 km/h (2 Bft) O-NO 69 2 min 0,000 mm 0,0 UV-I 142 W/m 8,5 C 17,1 C 8,0 km/h (2 Bft) 98,00 %
22.09.2016 17:58 17,1 C 57 % 1020,8 hPa 0,0 l/m 7,1 km/h (2 Bft) O-NO 67 2 min 0,000 mm 0,0 UV-I 137 W/m 8,5 C 16,7 C 11,3 km/h (2 Bft) 97,56 %
22.09.2016 18:00 17,0 C 57 % 1020,7 hPa 0,0 l/m 5,2 km/h (1 Bft) O-NO 65 2 min 0,153 mm 0,0 UV-I 131 W/m 8,4 C 17,0 C 8,0 km/h (2 Bft) 98,11 %
22.09.2016 18:02 17,0 C 57 % 1020,9 hPa 0,0 l/m 4,9 km/h (1 Bft) O-NO 64 2 min 0,000 mm 0,0 UV-I 127 W/m 8,4 C 17,0 C 6,4 km/h (2 Bft) 97,44 %
22.09.2016 18:04 16,9 C 58 % 1020,8 hPa 0,0 l/m 2,8 km/h (1 Bft) O-NO 68 2 min 0,000 mm 0,0 UV-I 121 W/m 8,6 C 16,9 C 6,4 km/h (2 Bft) 96,00 %
22.09.2016 18:06 16,8 C 58 % 1020,8 hPa 0,0 l/m 2,9 km/h (1 Bft) O-NO 69 2 min 0,000 mm 0,0 UV-I 116 W/m 8,5 C 16,8 C 4,8 km/h (1 Bft) 95,74 %
22.09.2016 18:08 16,7 C 59 % 1020,8 hPa 0,0 l/m 2,9 km/h (1 Bft) O-NO 78 2 min 0,000 mm 0,0 UV-I 111 W/m 8,6 C 16,7 C 4,8 km/h (1 Bft) 97,87 %
22.09.2016 18:10 16,6 C 59 % 1020,8 hPa 0,0 l/m 3,7 km/h (1 Bft) O-NO 69 2 min 0,000 mm 0,0 UV-I 105 W/m 8,6 C 16,6 C 6,4 km/h (2 Bft) 96,23 %
22.09.2016 18:12 16,6 C 59 % 1020,8 hPa 0,0 l/m 3,3 km/h (1 Bft) O-NO 69 2 min 0,000 mm 0,0 UV-I 101 W/m 8,6 C 16,6 C 4,8 km/h (1 Bft) 98,00 %
22.09.2016 18:14 16,4 C 60 % 1020,9 hPa 0,0 l/m 3,2 km/h (1 Bft) NO 53 2 min 0,000 mm 0,0 UV-I 95 W/m 8,6 C 16,4 C 4,8 km/h (1 Bft) 97,37 %
22.09.2016 18:16 16,3 C 62 % 1020,8 hPa 0,0 l/m 3,1 km/h (1 Bft) O-NO 58 2 min 0,000 mm 0,0 UV-I 90 W/m 9,0 C 16,3 C 4,8 km/h (1 Bft) 100,00 %
22.09.2016 18:18 16,2 C 62 % 1020,9 hPa 0,0 l/m 3,4 km/h (1 Bft) O-NO 74 2 min 0,000 mm 0,0 UV-I 86 W/m 8,9 C 16,2 C 4,8 km/h (1 Bft) 100,00 %
22.09.2016 18:20 16,1 C 63 % 1020,9 hPa 0,0 l/m 2,6 km/h (1 Bft) O-NO 74 2 min 0,000 mm 0,0 UV-I 78 W/m 9,1 C 16,1 C 6,4 km/h (2 Bft) 100,00 %
22.09.2016 18:22 16,0 C 64 % 1020,9 hPa 0,0 l/m 3,5 km/h (1 Bft) O-NO 68 0 min 0,000 mm 0,0 UV-I 51 W/m 9,2 C 16,0 C 4,8 km/h (1 Bft) 100,00 %
22.09.2016 18:24 15,9 C 65 % 1020,9 hPa 0,0 l/m 2,2 km/h (1 Bft) O-NO 71 0 min 0,000 mm 0,0 UV-I 27 W/m 9,3 C 15,9 C 4,8 km/h (1 Bft) 100,00 %
22.09.2016 18:26 15,8 C 64 % 1020,9 hPa 0,0 l/m 2,7 km/h (1 Bft) O-NO 70 0 min 0,000 mm 0,0 UV-I 25 W/m 9,0 C 15,8 C 4,8 km/h (1 Bft) 100,00 %
22.09.2016 18:28 15,7 C 64 % 1020,9 hPa 0,0 l/m 3,3 km/h (1 Bft) O-NO 70 0 min 0,000 mm 0,0 UV-I 25 W/m 8,9 C 15,7 C 4,8 km/h (1 Bft) 95,12 %
22.09.2016 18:30 15,6 C 64 % 1020,9 hPa 0,0 l/m 2,9 km/h (1 Bft) O-NO 70 0 min 0,000 mm 0,0 UV-I 24 W/m 8,8 C 15,6 C 4,8 km/h (1 Bft) 100,00 %
22.09.2016 18:32 15,6 C 65 % 1020,9 hPa 0,0 l/m 2,4 km/h (1 Bft) O-NO 70 0 min 0,000 mm 0,0 UV-I 23 W/m 9,0 C 15,6 C 3,2 km/h (1 Bft) 100,00 %
22.09.2016 18:34 15,5 C 65 % 1020,8 hPa 0,0 l/m 2,9 km/h (1 Bft) O-NO 70 0 min 0,000 mm 0,0 UV-I 22 W/m 8,9 C 15,5 C 4,8 km/h (1 Bft) 100,00 %
22.09.2016 18:36 15,3 C 68 % 1020,9 hPa 0,0 l/m 3,4 km/h (1 Bft) O-NO 70 0 min 0,000 mm 0,0 UV-I 20 W/m 9,4 C 15,3 C 4,8 km/h (1 Bft) 100,00 %
22.09.2016 18:38 15,2 C 67 % 1020,8 hPa 0,0 l/m 4,0 km/h (1 Bft) O-NO 70 0 min 0,000 mm 0,0 UV-I 16 W/m 9,1 C 15,2 C 4,8 km/h (1 Bft) 100,00 %
22.09.2016 18:40 15,1 C 68 % 1020,8 hPa 0,0 l/m 3,1 km/h (1 Bft) O-NO 70 0 min 0,000 mm 0,0 UV-I 13 W/m 9,2 C 15,1 C 4,8 km/h (1 Bft) 100,00 %
22.09.2016 18:42 15,0 C 69 % 1020,8 hPa 0,0 l/m 3,5 km/h (1 Bft) O-NO 70 0 min 0,000 mm 0,0 UV-I 12 W/m 9,4 C 15,0 C 4,8 km/h (1 Bft) 100,00 %
22.09.2016 18:44 14,8 C 68 % 1020,8 hPa 0,0 l/m 3,2 km/h (1 Bft) O-NO 70 0 min 0,000 mm 0,0 UV-I 11 W/m 9,0 C 14,8 C 4,8 km/h (1 Bft) 98,11 %
22.09.2016 18:46 14,8 C 68 % 1020,8 hPa 0,0 l/m 3,0 km/h (1 Bft) O-NO 70 0 min 0,000 mm 0,0 UV-I 11 W/m 9,0 C 14,8 C 4,8 km/h (1 Bft) 100,00 %
22.09.2016 18:48 14,7 C 69 % 1020,8 hPa 0,0 l/m 2,7 km/h (1 Bft) O-NO 70 0 min 0,000 mm 0,0 UV-I 10 W/m 9,1 C 14,7 C 4,8 km/h (1 Bft) 100,00 %
22.09.2016 18:50 14,6 C 70 % 1020,9 hPa 0,0 l/m 2,4 km/h (1 Bft) O-NO 70 0 min 0,000 mm 0,0 UV-I 9 W/m 9,2 C 14,6 C 4,8 km/h (1 Bft) 100,00 %
22.09.2016 18:52 14,4 C 70 % 1020,9 hPa 0,0 l/m 3,2 km/h (1 Bft) O-NO 70 0 min 0,000 mm 0,0 UV-I 8 W/m 9,0 C 14,4 C 4,8 km/h (1 Bft) 100,00 %
22.09.2016 18:54 14,3 C 72 % 1020,9 hPa 0,0 l/m 2,3 km/h (1 Bft) O-NO 70 0 min 0,000 mm 0,0 UV-I 7 W/m 9,3 C 14,3 C 3,2 km/h (1 Bft) 100,00 %
22.09.2016 18:56 14,1 C 74 % 1020,9 hPa 0,0 l/m 3,0 km/h (1 Bft) O-NO 70 0 min 0,000 mm 0,0 UV-I 6 W/m 9,5 C 14,1 C 4,8 km/h (1 Bft) 100,00 %
22.09.2016 18:58 13,9 C 73 % 1020,9 hPa 0,0 l/m 3,1 km/h (1 Bft) O-NO 70 0 min 0,000 mm 0,0 UV-I 5 W/m 9,1 C 13,9 C 4,8 km/h (1 Bft) 100,00 %
22.09.2016 19:00 13,8 C 74 % 1020,9 hPa 0,0 l/m 3,0 km/h (1 Bft) O-NO 70 0 min 0,051 mm 0,0 UV-I 5 W/m 9,2 C 13,8 C 4,8 km/h (1 Bft) 100,00 %
22.09.2016 19:02 13,7 C 76 % 1020,9 hPa 0,0 l/m 2,5 km/h (1 Bft) O-NO 70 0 min 0,000 mm 0,0 UV-I 1 W/m 9,5 C 13,7 C 3,2 km/h (1 Bft) 100,00 %
22.09.2016 19:04 13,4 C 76 % 1020,9 hPa 0,0 l/m 2,9 km/h (1 Bft) O-NO 70 0 min 0,000 mm 0,0 UV-I 0 W/m 9,3 C 13,4 C 3,2 km/h (1 Bft) 97,87 %
22.09.2016 19:06 13,3 C 77 % 1021,0 hPa 0,0 l/m 2,9 km/h (1 Bft) O-NO 70 0 min 0,000 mm 0,0 UV-I 0 W/m 9,4 C 13,3 C 4,8 km/h (1 Bft) 97,87 %
22.09.2016 19:08 13,2 C 77 % 1021,0 hPa 0,0 l/m 2,2 km/h (1 Bft) O-NO 70 0 min 0,000 mm 0,0 UV-I 0 W/m 9,3 C 13,2 C 3,2 km/h (1 Bft) 97,37 %
22.09.2016 19:10 13,2 C 77 % 1021,0 hPa 0,0 l/m 2,3 km/h (1 Bft) O-NO 70 0 min 0,000 mm 0,0 UV-I 0 W/m 9,3 C 13,2 C 3,2 km/h (1 Bft) 100,00 %
22.09.2016 19:12 13,1 C 78 % 1021,0 hPa 0,0 l/m 2,5 km/h (1 Bft) O-NO 70 0 min 0,000 mm 0,0 UV-I 0 W/m 9,4 C 13,1 C 3,2 km/h (1 Bft) 97,87 %
22.09.2016 19:14 13,1 C 77 % 1021,1 hPa 0,0 l/m 2,3 km/h (1 Bft) O-NO 70 0 min 0,000 mm 0,0 UV-I 0 W/m 9,2 C 13,1 C 3,2 km/h (1 Bft) 97,37 %
22.09.2016 19:16 12,9 C 77 % 1021,1 hPa 0,0 l/m 1,6 km/h (1 Bft) O-NO 70 0 min 0,000 mm 0,0 UV-I 0 W/m 9,0 C 12,9 C 3,2 km/h (1 Bft) 100,00 %
22.09.2016 19:18 12,8 C 78 % 1021,1 hPa 0,0 l/m 0,3 km/h (0 Bft) O-NO 70 0 min 0,000 mm 0,0 UV-I 0 W/m 9,1 C 12,8 C 1,6 km/h (1 Bft) 100,00 %
22.09.2016 19:20 12,6 C 79 % 1021,1 hPa 0,0 l/m 0,4 km/h (0 Bft) O-NO 70 0 min 0,000 mm 0,0 UV-I 0 W/m 9,1 C 12,6 C 1,6 km/h (1 Bft) 97,87 %
22.09.2016 19:22 12,4 C 79 % 1021,1 hPa 0,0 l/m 2,0 km/h (1 Bft) O-NO 70 0 min 0,000 mm 0,0 UV-I 0 W/m 8,9 C 12,4 C 3,2 km/h (1 Bft) 100,00 %
22.09.2016 19:24 12,3 C 80 % 1021,1 hPa 0,0 l/m 3,1 km/h (1 Bft) O-NO 70 0 min 0,000 mm 0,0 UV-I 0 W/m 8,9 C 12,3 C 4,8 km/h (1 Bft) 100,00 %
22.09.2016 19:26 12,2 C 80 % 1021,1 hPa 0,0 l/m 2,5 km/h (1 Bft) O-NO 70 0 min 0,000 mm 0,0 UV-I 0 W/m 8,9 C 12,2 C 3,2 km/h (1 Bft) 100,00 %
22.09.2016 19:28 12,1 C 79 % 1021,1 hPa 0,0 l/m 3,8 km/h (1 Bft) O-NO 70 0 min 0,000 mm 0,0 UV-I 0 W/m 8,6 C 12,1 C 6,4 km/h (2 Bft) 97,87 %
22.09.2016 19:30 12,1 C 79 % 1021,2 hPa 0,0 l/m 3,3 km/h (1 Bft) O-NO 70 0 min 0,000 mm 0,0 UV-I 0 W/m 8,6 C 12,1 C 4,8 km/h (1 Bft) 100,00 %
22.09.2016 19:32 12,1 C 79 % 1021,2 hPa 0,0 l/m 3,1 km/h (1 Bft) O-NO 70 0 min 0,000 mm 0,0 UV-I 0 W/m 8,6 C 12,1 C 4,8 km/h (1 Bft) 100,00 %
22.09.2016 19:34 12,1 C 79 % 1021,2 hPa 0,0 l/m 0,1 km/h (0 Bft) O-NO 70 0 min 0,000 mm 0,0 UV-I 0 W/m 8,6 C 12,1 C 1,6 km/h (1 Bft) 100,00 %
22.09.2016 19:36 12,1 C 79 % 1021,2 hPa 0,0 l/m 0,0 km/h (0 Bft) O-NO 70 0 min 0,000 mm 0,0 UV-I 0 W/m 8,6 C 12,1 C 0,0 km/h (0 Bft) 100,00 %
22.09.2016 19:38 12,1 C 80 % 1021,2 hPa 0,0 l/m 0,0 km/h (0 Bft) O-NO 70 0 min 0,000 mm 0,0 UV-I 0 W/m 8,8 C 12,1 C 0,0 km/h (0 Bft) 97,87 %
22.09.2016 19:40 12,0 C 80 % 1021,2 hPa 0,0 l/m 0,0 km/h (0 Bft) O-NO 70 0 min 0,000 mm 0,0 UV-I 0 W/m 8,7 C 12,0 C 0,0 km/h (0 Bft) 97,87 %
22.09.2016 19:42 12,0 C 80 % 1021,2 hPa 0,0 l/m 0,0 km/h (0 Bft) O-NO 70 0 min 0,000 mm 0,0 UV-I 0 W/m 8,7 C 12,0 C 0,0 km/h (0 Bft) 100,00 %
22.09.2016 19:44 11,9 C 80 % 1021,3 hPa 0,0 l/m 0,4 km/h (0 Bft) O-NO 70 0 min 0,000 mm 0,0 UV-I 0 W/m 8,6 C 11,9 C 1,6 km/h (1 Bft) 100,00 %
22.09.2016 19:46 11,8 C 80 % 1021,3 hPa 0,0 l/m 1,7 km/h (1 Bft) O-NO 70 0 min 0,000 mm 0,0 UV-I 0 W/m 8,5 C 11,8 C 3,2 km/h (1 Bft) 95,74 %
22.09.2016 19:48 11,7 C 81 % 1021,3 hPa 0,0 l/m 2,3 km/h (1 Bft) O 81 0 min 0,000 mm 0,0 UV-I 0 W/m 8,5 C 11,7 C 3,2 km/h (1 Bft) 100,00 %
22.09.2016 19:50 11,6 C 81 % 1021,3 hPa 0,0 l/m 3,7 km/h (1 Bft) O 82 0 min 0,000 mm 0,0 UV-I 0 W/m 8,5 C 11,6 C 4,8 km/h (1 Bft) 100,00 %
22.09.2016 19:52 11,6 C 81 % 1021,3 hPa 0,0 l/m 2,9 km/h (1 Bft) O 82 0 min 0,000 mm 0,0 UV-I 0 W/m 8,5 C 11,6 C 4,8 km/h (1 Bft) 93,18 %
22.09.2016 19:54 11,4 C 81 % 1021,3 hPa 0,0 l/m 3,2 km/h (1 Bft) O 86 0 min 0,000 mm 0,0 UV-I 0 W/m 8,3 C 11,4 C 4,8 km/h (1 Bft) 97,92 %
22.09.2016 19:56 11,4 C 81 % 1021,3 hPa 0,0 l/m 3,5 km/h (1 Bft) O 86 0 min 0,000 mm 0,0 UV-I 0 W/m 8,3 C 11,4 C 4,8 km/h (1 Bft) 96,00 %
22.09.2016 19:58 11,4 C 82 % 1021,3 hPa 0,0 l/m 2,2 km/h (1 Bft) O 86 0 min 0,000 mm 0,0 UV-I 0 W/m 8,4 C 11,4 C 4,8 km/h (1 Bft) 97,37 %
22.09.2016 20:00 11,4 C 82 % 1021,3 hPa 0,0 l/m 2,0 km/h (1 Bft) O 84 0 min 0,000 mm 0,0 UV-I 0 W/m 8,4 C 11,4 C 4,8 km/h (1 Bft) 98,00 %
22.09.2016 20:02 11,4 C 82 % 1021,3 hPa 0,0 l/m 0,1 km/h (0 Bft) O 84 0 min 0,000 mm 0,0 UV-I 0 W/m 8,4 C 11,4 C 1,6 km/h (1 Bft) 95,74 %
22.09.2016 20:04 11,4 C 82 % 1021,3 hPa 0,0 l/m 1,8 km/h (1 Bft) O 82 0 min 0,000 mm 0,0 UV-I 0 W/m 8,4 C 11,4 C 4,8 km/h (1 Bft) 97,92 %
22.09.2016 20:06 11,3 C 82 % 1021,3 hPa 0,0 l/m 2,8 km/h (1 Bft) O 82 0 min 0,000 mm 0,0 UV-I 0 W/m 8,3 C 11,3 C 4,8 km/h (1 Bft) 95,74 %
22.09.2016 20:08 11,3 C 82 % 1021,3 hPa 0,0 l/m 2,7 km/h (1 Bft) O 82 0 min 0,000 mm 0,0 UV-I 0 W/m 8,3 C 11,3 C 4,8 km/h (1 Bft) 97,87 %
22.09.2016 20:10 11,3 C 81 % 1021,3 hPa 0,0 l/m 3,8 km/h (1 Bft) O 82 0 min 0,000 mm 0,0 UV-I 0 W/m 8,2 C 11,3 C 6,4 km/h (2 Bft) 98,11 %
22.09.2016 20:12 11,3 C 81 % 1021,3 hPa 0,0 l/m 0,8 km/h (0 Bft) O 82 0 min 0,000 mm 0,0 UV-I 0 W/m 8,2 C 11,3 C 3,2 km/h (1 Bft) 97,87 %
22.09.2016 20:14 11,4 C 81 % 1021,4 hPa 0,0 l/m 0,6 km/h (0 Bft) O 82 0 min 0,000 mm 0,0 UV-I 0 W/m 8,3 C 11,4 C 3,2 km/h (1 Bft) 97,37 %
22.09.2016 20:16 11,3 C 83 % 1021,4 hPa 0,0 l/m 0,5 km/h (0 Bft) O 82 0 min 0,000 mm 0,0 UV-I 0 W/m 8,5 C 11,3 C 1,6 km/h (1 Bft) 97,87 %
22.09.2016 20:18 11,3 C 84 % 1021,5 hPa 0,0 l/m 0,7 km/h (0 Bft) O 82 0 min 0,000 mm 0,0 UV-I 0 W/m 8,7 C 11,3 C 1,6 km/h (1 Bft) 97,87 %
22.09.2016 20:20 11,2 C 85 % 1021,5 hPa 0,0 l/m 0,7 km/h (0 Bft) O 82 0 min 0,000 mm 0,0 UV-I 0 W/m 8,8 C 11,2 C 1,6 km/h (1 Bft) 97,87 %
22.09.2016 20:22 11,2 C 84 % 1021,5 hPa 0,0 l/m 1,0 km/h (0 Bft) O 82 0 min 0,000 mm 0,0 UV-I 0 W/m 8,6 C 11,2 C 3,2 km/h (1 Bft) 95,74 %
22.09.2016 20:24 11,2 C 83 % 1021,4 hPa 0,0 l/m 0,2 km/h (0 Bft) O 82 0 min 0,000 mm 0,0 UV-I 0 W/m 8,4 C 11,2 C 1,6 km/h (1 Bft) 96,23 %
22.09.2016 20:26 11,1 C 83 % 1021,4 hPa 0,0 l/m 0,0 km/h (0 Bft) O 82 0 min 0,000 mm 0,0 UV-I 0 W/m 8,3 C 11,1 C 0,0 km/h (0 Bft) 97,87 %
22.09.2016 20:28 11,1 C 83 % 1021,4 hPa 0,0 l/m 0,0 km/h (0 Bft) O 82 0 min 0,000 mm 0,0 UV-I 0 W/m 8,3 C 11,1 C 0,0 km/h (0 Bft) 97,87 %
22.09.2016 20:30 11,0 C 83 % 1021,5 hPa 0,0 l/m 0,0 km/h (0 Bft) O 82 0 min 0,000 mm 0,0 UV-I 0 W/m 8,2 C 11,0 C 0,0 km/h (0 Bft) 97,87 %
22.09.2016 20:32 10,9 C 84 % 1021,5 hPa 0,0 l/m 0,0 km/h (0 Bft) O 82 0 min 0,000 mm 0,0 UV-I 0 W/m 8,3 C 10,9 C 0,0 km/h (0 Bft) 97,87 %
22.09.2016 20:34 10,9 C 85 % 1021,5 hPa 0,0 l/m 0,0 km/h (0 Bft) O 82 0 min 0,000 mm 0,0 UV-I 0 W/m 8,5 C 10,9 C 0,0 km/h (0 Bft) 100,00 %
22.09.2016 20:36 10,9 C 85 % 1021,5 hPa 0,0 l/m 0,0 km/h (0 Bft) O 82 0 min 0,000 mm 0,0 UV-I 0 W/m 8,5 C 10,9 C 0,0 km/h (0 Bft) 100,00 %
22.09.2016 20:38 10,9 C 85 % 1021,5 hPa 0,0 l/m 0,0 km/h (0 Bft) O 82 0 min 0,000 mm 0,0 UV-I 0 W/m 8,5 C 10,9 C 0,0 km/h (0 Bft) 100,00 %
22.09.2016 20:40 10,8 C 85 % 1021,6 hPa 0,0 l/m 0,0 km/h (0 Bft) O 82 0 min 0,000 mm 0,0 UV-I 0 W/m 8,4 C 10,8 C 0,0 km/h (0 Bft) 100,00 %
22.09.2016 20:42 10,8 C 85 % 1021,6 hPa 0,0 l/m 0,0 km/h (0 Bft) O 82 0 min 0,000 mm 0,0 UV-I 0 W/m 8,4 C 10,8 C 0,0 km/h (0 Bft) 100,00 %
22.09.2016 20:44 10,6 C 85 % 1021,6 hPa 0,0 l/m 0,0 km/h (0 Bft) O 82 0 min 0,000 mm 0,0 UV-I 0 W/m 8,2 C 10,6 C 0,0 km/h (0 Bft) 100,00 %
22.09.2016 20:46 10,5 C 85 % 1021,6 hPa 0,0 l/m 0,6 km/h (0 Bft) O 82 0 min 0,000 mm 0,0 UV-I 0 W/m 8,1 C 10,5 C 1,6 km/h (1 Bft) 100,00 %
22.09.2016 20:48 10,4 C 85 % 1021,6 hPa 0,0 l/m 0,4 km/h (0 Bft) O 82 0 min 0,000 mm 0,0 UV-I 0 W/m 8,0 C 10,4 C 1,6 km/h (1 Bft) 100,00 %
22.09.2016 20:50 10,3 C 85 % 1021,6 hPa 0,0 l/m 0,0 km/h (0 Bft) O 82 0 min 0,000 mm 0,0 UV-I 0 W/m 7,9 C 10,3 C 0,0 km/h (0 Bft) 98,00 %
22.09.2016 20:52 10,3 C 86 % 1021,6 hPa 0,0 l/m 0,0 km/h (0 Bft) O 82 0 min 0,000 mm 0,0 UV-I 0 W/m 8,1 C 10,3 C 0,0 km/h (0 Bft) 100,00 %
22.09.2016 20:54 10,3 C 86 % 1021,7 hPa 0,0 l/m 0,0 km/h (0 Bft) O 82 0 min 0,000 mm 0,0 UV-I 0 W/m 8,1 C 10,3 C 1,6 km/h (1 Bft) 100,00 %
22.09.2016 20:56 10,3 C 86 % 1021,6 hPa 0,0 l/m 0,4 km/h (0 Bft) O 82 0 min 0,000 mm 0,0 UV-I 0 W/m 8,1 C 10,3 C 1,6 km/h (1 Bft) 100,00 %
22.09.2016 20:58 10,2 C 86 % 1021,7 hPa 0,0 l/m 1,6 km/h (1 Bft) O 82 0 min 0,000 mm 0,0 UV-I 0 W/m 8,0 C 10,2 C 3,2 km/h (1 Bft) 100,00 %
22.09.2016 21:00 10,2 C 86 % 1021,7 hPa 0,0 l/m 1,3 km/h (1 Bft) O 82 0 min 0,000 mm 0,0 UV-I 0 W/m 8,0 C 10,2 C 1,6 km/h (1 Bft) 100,00 %
22.09.2016 21:02 10,1 C 86 % 1021,7 hPa 0,0 l/m 1,7 km/h (1 Bft) O 82 0 min 0,000 mm 0,0 UV-I 0 W/m 7,9 C 10,1 C 3,2 km/h (1 Bft) 100,00 %
22.09.2016 21:04 10,1 C 86 % 1021,7 hPa 0,0 l/m 1,0 km/h (0 Bft) O 82 0 min 0,000 mm 0,0 UV-I 0 W/m 7,9 C 10,1 C 3,2 km/h (1 Bft) 100,00 %
22.09.2016 21:06 10,0 C 86 % 1021,7 hPa 0,0 l/m 0,0 km/h (0 Bft) O 82 0 min 0,000 mm 0,0 UV-I 0 W/m 7,8 C 10,0 C 1,6 km/h (1 Bft) 100,00 %
22.09.2016 21:08 9,9 C 86 % 1021,7 hPa 0,0 l/m 0,0 km/h (0 Bft) O 82 0 min 0,000 mm 0,0 UV-I 0 W/m 7,7 C 9,9 C 0,0 km/h (0 Bft) 96,00 %
22.09.2016 21:10 9,9 C 86 % 1021,7 hPa 0,0 l/m 0,0 km/h (0 Bft) O 82 0 min 0,000 mm 0,0 UV-I 0 W/m 7,7 C 9,9 C 0,0 km/h (0 Bft) 97,14 %
22.09.2016 21:12 9,9 C 86 % 1021,7 hPa 0,0 l/m 0,0 km/h (0 Bft) O 82 0 min 0,000 mm 0,0 UV-I 0 W/m 7,7 C 9,9 C 0,0 km/h (0 Bft) 100,00 %
22.09.2016 21:14 10,0 C 86 % 1021,7 hPa 0,0 l/m 0,0 km/h (0 Bft) O 82 0 min 0,000 mm 0,0 UV-I 0 W/m 7,8 C 10,0 C 0,0 km/h (0 Bft) 100,00 %
22.09.2016 21:16 10,1 C 86 % 1021,8 hPa 0,0 l/m 0,4 km/h (0 Bft) O 82 0 min 0,000 mm 0,0 UV-I 0 W/m 7,9 C 10,1 C 1,6 km/h (1 Bft) 100,00 %
22.09.2016 21:18 10,0 C 85 % 1021,8 hPa 0,0 l/m 1,5 km/h (1 Bft) O 82 0 min 0,000 mm 0,0 UV-I 0 W/m 7,6 C 10,0 C 3,2 km/h (1 Bft) 100,00 %
22.09.2016 21:20 9,8 C 86 % 1021,8 hPa 0,0 l/m 1,7 km/h (1 Bft) O 82 0 min 0,000 mm 0,0 UV-I 0 W/m 7,6 C 9,8 C 3,2 km/h (1 Bft) 100,00 %
22.09.2016 21:22 9,7 C 87 % 1021,8 hPa 0,0 l/m 0,8 km/h (0 Bft) O 82 0 min 0,000 mm 0,0 UV-I 0 W/m 7,6 C 9,7 C 1,6 km/h (1 Bft) 100,00 %
22.09.2016 21:24 9,7 C 87 % 1021,8 hPa 0,0 l/m 0,1 km/h (0 Bft) O 82 0 min 0,000 mm 0,0 UV-I 0 W/m 7,6 C 9,7 C 1,6 km/h (1 Bft) 100,00 %
22.09.2016 21:26 9,6 C 87 % 1021,8 hPa 0,0 l/m 0,4 km/h (0 Bft) O 82 0 min 0,000 mm 0,0 UV-I 0 W/m 7,5 C 9,6 C 1,6 km/h (1 Bft) 100,00 %
22.09.2016 21:28 9,6 C 87 % 1021,7 hPa 0,0 l/m 0,0 km/h (0 Bft) O 82 0 min 0,000 mm 0,0 UV-I 0 W/m 7,5 C 9,6 C 0,0 km/h (0 Bft) 100,00 %
22.09.2016 21:30 9,5 C 87 % 1021,8 hPa 0,0 l/m 0,0 km/h (0 Bft) O 82 0 min 0,000 mm 0,0 UV-I 0 W/m 7,4 C 9,5 C 0,0 km/h (0 Bft) 100,00 %
22.09.2016 21:32 9,5 C 87 % 1021,8 hPa 0,0 l/m 0,0 km/h (0 Bft) O 82 0 min 0,000 mm 0,0 UV-I 0 W/m 7,4 C 9,5 C 0,0 km/h (0 Bft) 100,00 %
22.09.2016 21:34 9,6 C 88 % 1021,8 hPa 0,0 l/m 0,0 km/h (0 Bft) O 82 0 min 0,000 mm 0,0 UV-I 0 W/m 7,7 C 9,6 C 0,0 km/h (0 Bft) 100,00 %
22.09.2016 21:36 9,6 C 88 % 1021,8 hPa 0,0 l/m 0,7 km/h (0 Bft) O 82 0 min 0,000 mm 0,0 UV-I 0 W/m 7,7 C 9,6 C 1,6 km/h (1 Bft) 97,87 %
22.09.2016 21:38 9,6 C 88 % 1021,8 hPa 0,0 l/m 1,1 km/h (1 Bft) O 82 0 min 0,000 mm 0,0 UV-I 0 W/m 7,7 C 9,6 C 3,2 km/h (1 Bft) 100,00 %
22.09.2016 21:40 9,5 C 88 % 1021,8 hPa 0,0 l/m 1,5 km/h (1 Bft) O 82 0 min 0,000 mm 0,0 UV-I 0 W/m 7,6 C 9,5 C 3,2 km/h (1 Bft) 100,00 %
22.09.2016 21:42 9,4 C 88 % 1021,8 hPa 0,0 l/m 1,2 km/h (1 Bft) O 82 0 min 0,000 mm 0,0 UV-I 0 W/m 7,5 C 9,4 C 1,6 km/h (1 Bft) 100,00 %
22.09.2016 21:44 9,3 C 88 % 1021,8 hPa 0,0 l/m 0,3 km/h (0 Bft) O 82 0 min 0,000 mm 0,0 UV-I 0 W/m 7,4 C 9,3 C 1,6 km/h (1 Bft) 100,00 %
22.09.2016 21:46 9,2 C 89 % 1021,8 hPa 0,0 l/m 0,0 km/h (0 Bft) O 82 0 min 0,000 mm 0,0 UV-I 0 W/m 7,5 C 9,2 C 0,0 km/h (0 Bft) 100,00 %
22.09.2016 21:48 9,2 C 89 % 1021,8 hPa 0,0 l/m 1,4 km/h (1 Bft) O 82 0 min 0,000 mm 0,0 UV-I 0 W/m 7,5 C 9,2 C 3,2 km/h (1 Bft) 100,00 %
22.09.2016 21:50 9,2 C 89 % 1021,8 hPa 0,0 l/m 3,1 km/h (1 Bft) O-SO 107 0 min 0,000 mm 0,0 UV-I 0 W/m 7,5 C 9,2 C 4,8 km/h (1 Bft) 100,00 %
22.09.2016 21:52 9,2 C 89 % 1021,8 hPa 0,0 l/m 3,0 km/h (1 Bft) O-SO 107 0 min 0,000 mm 0,0 UV-I 0 W/m 7,5 C 9,2 C 4,8 km/h (1 Bft) 100,00 %
22.09.2016 21:54 9,2 C 89 % 1021,8 hPa 0,0 l/m 2,9 km/h (1 Bft) O-SO 107 0 min 0,000 mm 0,0 UV-I 0 W/m 7,5 C 9,2 C 3,2 km/h (1 Bft) 100,00 %
22.09.2016 21:56 9,2 C 89 % 1021,8 hPa 0,0 l/m 2,1 km/h (1 Bft) O-SO 107 0 min 0,000 mm 0,0 UV-I 0 W/m 7,5 C 9,2 C 3,2 km/h (1 Bft) 96,00 %
22.09.2016 21:58 9,1 C 89 % 1021,8 hPa 0,0 l/m 0,5 km/h (0 Bft) O-SO 107 0 min 0,000 mm 0,0 UV-I 0 W/m 7,4 C 9,1 C 1,6 km/h (1 Bft) 100,00 %
22.09.2016 22:00 9,0 C 90 % 1021,8 hPa 0,0 l/m 0,1 km/h (0 Bft) O-SO 107 0 min 0,000 mm 0,0 UV-I 0 W/m 7,4 C 9,0 C 1,6 km/h (1 Bft) 98,39 %
22.09.2016 22:02 9,0 C 90 % 1021,9 hPa 0,0 l/m 0,3 km/h (0 Bft) O-SO 107 0 min 0,000 mm 0,0 UV-I 0 W/m 7,4 C 9,0 C 1,6 km/h (1 Bft) 100,00 %
22.09.2016 22:04 9,0 C 90 % 1021,8 hPa 0,0 l/m 0,4 km/h (0 Bft) O-SO 107 0 min 0,000 mm 0,0 UV-I 0 W/m 7,4 C 9,0 C 1,6 km/h (1 Bft) 100,00 %
22.09.2016 22:06 9,1 C 90 % 1021,8 hPa 0,0 l/m 0,2 km/h (0 Bft) O-SO 107 0 min 0,000 mm 0,0 UV-I 0 W/m 7,5 C 9,1 C 1,6 km/h (1 Bft) 100,00 %
22.09.2016 22:08 9,1 C 90 % 1021,8 hPa 0,0 l/m 0,4 km/h (0 Bft) O-SO 107 0 min 0,000 mm 0,0 UV-I 0 W/m 7,5 C 9,1 C 1,6 km/h (1 Bft) 94,34 %
22.09.2016 22:10 9,2 C 89 % 1021,7 hPa 0,0 l/m 1,3 km/h (1 Bft) O-SO 107 0 min 0,000 mm 0,0 UV-I 0 W/m 7,5 C 9,2 C 3,2 km/h (1 Bft) 94,74 %
22.09.2016 22:12 9,2 C 89 % 1021,7 hPa 0,0 l/m 3,1 km/h (1 Bft) O-SO 107 0 min 0,000 mm 0,0 UV-I 0 W/m 7,5 C 9,2 C 4,8 km/h (1 Bft) 98,00 %
22.09.2016 22:14 9,1 C 89 % 1021,6 hPa 0,0 l/m 3,3 km/h (1 Bft) O-SO 107 0 min 0,000 mm 0,0 UV-I 0 W/m 7,4 C 9,1 C 4,8 km/h (1 Bft) 97,87 %
22.09.2016 22:16 8,9 C 89 % 1021,6 hPa 0,0 l/m 3,0 km/h (1 Bft) O-SO 107 0 min 0,000 mm 0,0 UV-I 0 W/m 7,2 C 8,9 C 3,2 km/h (1 Bft) 98,00 %
22.09.2016 22:18 8,9 C 90 % 1021,6 hPa 0,0 l/m 2,4 km/h (1 Bft) O-SO 107 0 min 0,000 mm 0,0 UV-I 0 W/m 7,4 C 8,9 C 3,2 km/h (1 Bft) 97,37 %
22.09.2016 22:20 9,0 C 90 % 1021,6 hPa 0,0 l/m 1,1 km/h (1 Bft) O-SO 107 0 min 0,000 mm 0,0 UV-I 0 W/m 7,4 C 9,0 C 3,2 km/h (1 Bft) 98,15 %
22.09.2016 22:22 9,1 C 90 % 1021,7 hPa 0,0 l/m 0,5 km/h (0 Bft) O-SO 107 0 min 0,000 mm 0,0 UV-I 0 W/m 7,5 C 9,1 C 1,6 km/h (1 Bft) 94,00 %
22.09.2016 22:24 9,1 C 90 % 1021,7 hPa 0,0 l/m 0,0 km/h (0 Bft) O-SO 107 0 min 0,000 mm 0,0 UV-I 0 W/m 7,5 C 9,1 C 1,6 km/h (1 Bft) 100,00 %
22.09.2016 22:26 9,0 C 90 % 1021,7 hPa 0,0 l/m 0,4 km/h (0 Bft) O-SO 107 0 min 0,000 mm 0,0 UV-I 0 W/m 7,4 C 9,0 C 1,6 km/h (1 Bft) 96,23 %
22.09.2016 22:28 8,9 C 90 % 1021,7 hPa 0,0 l/m 1,2 km/h (1 Bft) O-SO 107 0 min 0,000 mm 0,0 UV-I 0 W/m 7,4 C 8,9 C 1,6 km/h (1 Bft) 97,87 %
22.09.2016 22:30 8,8 C 91 % 1021,7 hPa 0,0 l/m 0,7 km/h (0 Bft) O-SO 107 0 min 0,000 mm 0,0 UV-I 0 W/m 7,4 C 8,8 C 1,6 km/h (1 Bft) 98,00 %
22.09.2016 22:32 8,7 C 91 % 1021,8 hPa 0,0 l/m 0,1 km/h (0 Bft) O-SO 107 0 min 0,000 mm 0,0 UV-I 0 W/m 7,3 C 8,7 C 1,6 km/h (1 Bft) 97,87 %
22.09.2016 22:34 8,7 C 91 % 1021,8 hPa 0,0 l/m 0,0 km/h (0 Bft) O-SO 107 0 min 0,000 mm 0,0 UV-I 0 W/m 7,3 C 8,7 C 0,0 km/h (0 Bft) 94,74 %
22.09.2016 22:36 8,6 C 91 % 1021,8 hPa 0,0 l/m 0,0 km/h (0 Bft) O-SO 107 0 min 0,000 mm 0,0 UV-I 0 W/m 7,2 C 8,6 C 0,0 km/h (0 Bft) 97,87 %
22.09.2016 22:38 8,6 C 91 % 1021,8 hPa 0,0 l/m 0,0 km/h (0 Bft) O-SO 107 0 min 0,000 mm 0,0 UV-I 0 W/m 7,2 C 8,6 C 0,0 km/h (0 Bft) 98,00 %
22.09.2016 22:40 8,5 C 91 % 1021,7 hPa 0,0 l/m 0,0 km/h (0 Bft) O-SO 107 0 min 0,000 mm 0,0 UV-I 0 W/m 7,1 C 8,5 C 0,0 km/h (0 Bft) 95,56 %
22.09.2016 22:42 8,5 C 91 % 1021,8 hPa 0,0 l/m 0,0 km/h (0 Bft) O-SO 107 0 min 0,000 mm 0,0 UV-I 0 W/m 7,1 C 8,5 C 0,0 km/h (0 Bft) 98,00 %
22.09.2016 22:44 8,5 C 92 % 1021,9 hPa 0,0 l/m 0,1 km/h (0 Bft) O-SO 107 0 min 0,000 mm 0,0 UV-I 0 W/m 7,3 C 8,5 C 1,6 km/h (1 Bft) 100,00 %
22.09.2016 22:46 8,4 C 92 % 1021,9 hPa 0,0 l/m 0,4 km/h (0 Bft) O-SO 107 0 min 0,000 mm 0,0 UV-I 0 W/m 7,2 C 8,4 C 1,6 km/h (1 Bft) 100,00 %
22.09.2016 22:48 8,4 C 92 % 1021,9 hPa 0,0 l/m 0,0 km/h (0 Bft) O-SO 107 0 min 0,000 mm 0,0 UV-I 0 W/m 7,2 C 8,4 C 0,0 km/h (0 Bft) 97,87 %
22.09.2016 22:50 8,4 C 92 % 1021,9 hPa 0,0 l/m 0,0 km/h (0 Bft) O-SO 107 0 min 0,000 mm 0,0 UV-I 0 W/m 7,2 C 8,4 C 0,0 km/h (0 Bft) 100,00 %
22.09.2016 22:52 8,3 C 92 % 1021,8 hPa 0,0 l/m 0,0 km/h (0 Bft) O-SO 107 0 min 0,000 mm 0,0 UV-I 0 W/m 7,1 C 8,3 C 0,0 km/h (0 Bft) 100,00 %
22.09.2016 22:54 8,1 C 91 % 1021,8 hPa 0,0 l/m 0,0 km/h (0 Bft) O-SO 107 0 min 0,000 mm 0,0 UV-I 0 W/m 6,7 C 8,1 C 0,0 km/h (0 Bft) 100,00 %
22.09.2016 22:56 7,9 C 92 % 1021,8 hPa 0,0 l/m 0,0 km/h (0 Bft) O-SO 107 0 min 0,000 mm 0,0 UV-I 0 W/m 6,7 C 7,9 C 1,6 km/h (1 Bft) 100,00 %
22.09.2016 22:58 8,0 C 92 % 1021,8 hPa 0,0 l/m 0,1 km/h (0 Bft) O-SO 107 0 min 0,000 mm 0,0 UV-I 0 W/m 6,8 C 8,0 C 1,6 km/h (1 Bft) 100,00 %
22.09.2016 23:00 8,1 C 93 % 1021,9 hPa 0,0 l/m 1,6 km/h (1 Bft) O-SO 107 0 min 0,000 mm 0,0 UV-I 0 W/m 7,0 C 8,1 C 3,2 km/h (1 Bft) 100,00 %
22.09.2016 23:02 8,1 C 93 % 1022,0 hPa 0,0 l/m 1,5 km/h (1 Bft) O-SO 107 0 min 0,000 mm 0,0 UV-I 0 W/m 7,0 C 8,1 C 3,2 km/h (1 Bft) 100,00 %
22.09.2016 23:04 8,2 C 93 % 1022,0 hPa 0,0 l/m 2,4 km/h (1 Bft) O-SO 107 0 min 0,000 mm 0,0 UV-I 0 W/m 7,1 C 8,2 C 3,2 km/h (1 Bft) 100,00 %
22.09.2016 23:06 8,3 C 93 % 1022,0 hPa 0,0 l/m 2,4 km/h (1 Bft) O-SO 107 0 min 0,000 mm 0,0 UV-I 0 W/m 7,2 C 8,3 C 3,2 km/h (1 Bft) 95,74 %
22.09.2016 23:08 8,2 C 93 % 1022,0 hPa 0,0 l/m 0,3 km/h (0 Bft) O-SO 107 0 min 0,000 mm 0,0 UV-I 0 W/m 7,1 C 8,2 C 3,2 km/h (1 Bft) 100,00 %
22.09.2016 23:10 8,1 C 92 % 1022,0 hPa 0,0 l/m 0,6 km/h (0 Bft) O-SO 107 0 min 0,000 mm 0,0 UV-I 0 W/m 6,9 C 8,1 C 1,6 km/h (1 Bft) 100,00 %
22.09.2016 23:12 7,9 C 92 % 1022,1 hPa 0,0 l/m 0,1 km/h (0 Bft) O-SO 107 0 min 0,000 mm 0,0 UV-I 0 W/m 6,7 C 7,9 C 1,6 km/h (1 Bft) 100,00 %
22.09.2016 23:14 7,9 C 93 % 1022,1 hPa 0,0 l/m 0,0 km/h (0 Bft) O-SO 107 0 min 0,000 mm 0,0 UV-I 0 W/m 6,8 C 7,9 C 0,0 km/h (0 Bft) 100,00 %
22.09.2016 23:16 7,9 C 93 % 1022,1 hPa 0,0 l/m 0,0 km/h (0 Bft) O-SO 107 0 min 0,000 mm 0,0 UV-I 0 W/m 6,8 C 7,9 C 0,0 km/h (0 Bft) 100,00 %
22.09.2016 23:18 8,0 C 93 % 1022,1 hPa 0,0 l/m 0,2 km/h (0 Bft) O-SO 107 0 min 0,000 mm 0,0 UV-I 0 W/m 6,9 C 8,0 C 1,6 km/h (1 Bft) 97,87 %
22.09.2016 23:20 8,1 C 93 % 1022,1 hPa 0,0 l/m 2,0 km/h (1 Bft) O-SO 107 0 min 0,000 mm 0,0 UV-I 0 W/m 7,0 C 8,1 C 3,2 km/h (1 Bft) 100,00 %
22.09.2016 23:22 8,2 C 93 % 1022,1 hPa 0,0 l/m 2,7 km/h (1 Bft) O-SO 107 0 min 0,000 mm 0,0 UV-I 0 W/m 7,1 C 8,2 C 3,2 km/h (1 Bft) 100,00 %
22.09.2016 23:24 8,2 C 93 % 1022,1 hPa 0,0 l/m 2,6 km/h (1 Bft) O-SO 107 0 min 0,000 mm 0,0 UV-I 0 W/m 7,1 C 8,2 C 3,2 km/h (1 Bft) 100,00 %
22.09.2016 23:26 8,2 C 93 % 1022,2 hPa 0,0 l/m 1,3 km/h (1 Bft) O-SO 107 0 min 0,000 mm 0,0 UV-I 0 W/m 7,1 C 8,2 C 3,2 km/h (1 Bft) 100,00 %
22.09.2016 23:28 8,2 C 93 % 1022,2 hPa 0,0 l/m 2,3 km/h (1 Bft) O-SO 107 0 min 0,000 mm 0,0 UV-I 0 W/m 7,1 C 8,2 C 3,2 km/h (1 Bft) 98,00 %
22.09.2016 23:30 8,1 C 93 % 1022,2 hPa 0,0 l/m 0,7 km/h (0 Bft) O-SO 107 0 min 0,000 mm 0,0 UV-I 0 W/m 7,0 C 8,1 C 3,2 km/h (1 Bft) 100,00 %
22.09.2016 23:32 8,0 C 92 % 1022,1 hPa 0,0 l/m 0,4 km/h (0 Bft) O-SO 107 0 min 0,000 mm 0,0 UV-I 0 W/m 6,8 C 8,0 C 3,2 km/h (1 Bft) 100,00 %
22.09.2016 23:34 7,9 C 93 % 1022,1 hPa 0,0 l/m 1,0 km/h (0 Bft) O-SO 107 0 min 0,000 mm 0,0 UV-I 0 W/m 6,8 C 7,9 C 3,2 km/h (1 Bft) 100,00 %
22.09.2016 23:36 7,9 C 93 % 1022,1 hPa 0,0 l/m 0,0 km/h (0 Bft) O-SO 107 0 min 0,000 mm 0,0 UV-I 0 W/m 6,8 C 7,9 C 1,6 km/h (1 Bft) 100,00 %
22.09.2016 23:38 7,9 C 93 % 1022,1 hPa 0,0 l/m 0,9 km/h (0 Bft) O-SO 107 0 min 0,000 mm 0,0 UV-I 0 W/m 6,8 C 7,9 C 3,2 km/h (1 Bft) 100,00 %
22.09.2016 23:40 8,0 C 94 % 1022,1 hPa 0,0 l/m 1,5 km/h (1 Bft) O-SO 107 0 min 0,000 mm 0,0 UV-I 0 W/m 7,1 C 8,0 C 3,2 km/h (1 Bft) 100,00 %
22.09.2016 23:42 8,1 C 94 % 1022,0 hPa 0,0 l/m 1,1 km/h (1 Bft) O-SO 107 0 min 0,000 mm 0,0 UV-I 0 W/m 7,2 C 8,1 C 3,2 km/h (1 Bft) 100,00 %
22.09.2016 23:44 8,1 C 93 % 1022,0 hPa 0,0 l/m 2,0 km/h (1 Bft) O-SO 107 0 min 0,000 mm 0,0 UV-I 0 W/m 7,0 C 8,1 C 3,2 km/h (1 Bft) 97,87 %
22.09.2016 23:46 8,1 C 93 % 1022,0 hPa 0,0 l/m 1,1 km/h (1 Bft) O-SO 107 0 min 0,000 mm 0,0 UV-I 0 W/m 7,0 C 8,1 C 3,2 km/h (1 Bft) 100,00 %
22.09.2016 23:48 7,9 C 93 % 1021,9 hPa 0,0 l/m 1,6 km/h (1 Bft) O-SO 107 0 min 0,000 mm 0,0 UV-I 0 W/m 6,8 C 7,9 C 3,2 km/h (1 Bft) 100,00 %
22.09.2016 23:50 7,8 C 93 % 1021,9 hPa 0,0 l/m 1,4 km/h (1 Bft) O-SO 107 0 min 0,000 mm 0,0 UV-I 0 W/m 6,7 C 7,8 C 3,2 km/h (1 Bft) 97,37 %
22.09.2016 23:52 7,8 C 93 % 1022,0 hPa 0,0 l/m 0,5 km/h (0 Bft) O-SO 107 0 min 0,000 mm 0,0 UV-I 0 W/m 6,7 C 7,8 C 1,6 km/h (1 Bft) 100,00 %
22.09.2016 23:54 7,8 C 93 % 1022,0 hPa 0,0 l/m 0,0 km/h (0 Bft) O-SO 107 0 min 0,000 mm 0,0 UV-I 0 W/m 6,7 C 7,8 C 0,0 km/h (0 Bft) 100,00 %
22.09.2016 23:56 7,8 C 93 % 1022,0 hPa 0,0 l/m 0,3 km/h (0 Bft) O-SO 107 0 min 0,000 mm 0,0 UV-I 0 W/m 6,7 C 7,8 C 1,6 km/h (1 Bft) 100,00 %
22.09.2016 23:58 7,8 C 93 % 1022,0 hPa 0,0 l/m 0,6 km/h (0 Bft) O-SO 107 0 min 0,000 mm 0,0 UV-I 0 W/m 6,7 C 7,8 C 1,6 km/h (1 Bft) 100,00 %
_ Min-Zeit 06:50 17:16 00:00 - 06:08 - - - - - - 06:28 06:50 06:08 00:58
Minimum _ 6,5 C 50 % 1019,7 hPa - 0,0 km/h (0 Bft) - - - - - - 5,9 C 6,5 C 0,0 km/h (0 Bft) 92,68 %
_ Max-Zeit 15:32 03:34 11:58 00:00 13:28 - - 07:02 14:00 13:14 12:24 14:02 16:28 13:54 00:00
Maximum _ 18,2 C 96 % 1022,6 hPa 0,0 l/m 13,1 km/h
O-NO (3 Bft)
- - 2 min 0,381 mm 3,3 UV-I 827 W/m 11,6 C 18,2 C 19,3 km/h
O (3 Bft)
100,00 %
Durchschnitt _ 11,5 C 82 % 1021,2 hPa #0,0 l/m 3,6 km/h (1 Bft) O-NO - #9:12 h #2,515 mm 1,9 UV-I 357 W/m 8,2 C 11,4 C 6,1 km/h (2 Bft) 98,82 %